Wetterdaten: Samstag, 08.06.2019
Datum Zeit Temp. Aussen Temp. o. S. +5cm Feuchte Auss Luftdruck Regen Sonnenschein Regendauer Solar Windben Empfang
08.06.2019 00:00 14,7 C 14,4 C 13,9 C 74 % 1010,1 hPa 0,0 l/m 0 min 0 min 0 W/m 29,0 km/h (5 Bft) 100,00 %
08.06.2019 00:02 14,7 C 14,4 C 13,9 C 74 % 1010,1 hPa 0,0 l/m 0 min 0 min 0 W/m 25,7 km/h (4 Bft) 97,56 %
08.06.2019 00:04 14,8 C 14,4 C 13,9 C 74 % 1010,1 hPa 0,0 l/m 0 min 0 min 0 W/m 29,0 km/h (5 Bft) 100,00 %
08.06.2019 00:08 14,9 C 14,4 C 13,9 C 74 % 1010,1 hPa 0,0 l/m 0 min 0 min 0 W/m 29,0 km/h (5 Bft) 100,00 %
08.06.2019 00:10 14,9 C 14,4 C 13,9 C 74 % 1010,1 hPa 0,0 l/m 0 min 0 min 0 W/m 25,7 km/h (4 Bft) 100,00 %
08.06.2019 00:12 14,9 C 14,4 C 13,9 C 74 % 1010,2 hPa 0,0 l/m 0 min 0 min 0 W/m 22,5 km/h (4 Bft) 100,00 %
08.06.2019 00:14 15,0 C 15,0 C 14,4 C 73 % 1010,1 hPa 0,0 l/m 0 min 0 min 0 W/m 25,7 km/h (4 Bft) 100,00 %
08.06.2019 00:16 15,1 C 15,0 C 14,4 C 73 % 1010,1 hPa 0,2 l/m 0 min 0 min 0 W/m 48,3 km/h (6 Bft) 100,00 %
08.06.2019 00:18 15,2 C 15,0 C 14,4 C 73 % 1010,1 hPa 0,0 l/m 0 min 0 min 0 W/m 25,7 km/h (4 Bft) 95,65 %
08.06.2019 00:20 15,3 C 15,0 C 14,4 C 73 % 1010,2 hPa 0,0 l/m 0 min 0 min 0 W/m 35,4 km/h (5 Bft) 97,87 %
08.06.2019 00:22 15,3 C 15,0 C 15,0 C 72 % 1010,4 hPa 0,0 l/m 0 min 0 min 0 W/m 38,6 km/h (5 Bft) 100,00 %
08.06.2019 00:24 15,4 C 15,0 C 15,0 C 72 % 1010,0 hPa 0,0 l/m 0 min 0 min 0 W/m 25,7 km/h (4 Bft) 100,00 %
08.06.2019 00:26 15,5 C 15,6 C 15,0 C 72 % 1010,1 hPa 0,0 l/m 0 min 0 min 0 W/m 45,1 km/h (6 Bft) 93,62 %
08.06.2019 00:28 15,6 C 15,6 C 15,0 C 72 % 1010,3 hPa 0,0 l/m 0 min 0 min 0 W/m 38,6 km/h (5 Bft) 97,87 %
08.06.2019 00:30 15,7 C 15,6 C 15,0 C 71 % 1010,1 hPa 0,0 l/m 0 min 0 min 0 W/m 54,7 km/h (7 Bft) 100,00 %
08.06.2019 00:32 15,7 C 15,6 C 15,0 C 71 % 1010,3 hPa 0,0 l/m 0 min 0 min 0 W/m 22,5 km/h (4 Bft) 100,00 %
08.06.2019 00:34 15,8 C 15,6 C 15,0 C 71 % 1010,4 hPa 0,0 l/m 0 min 0 min 0 W/m 25,7 km/h (4 Bft) 95,74 %
08.06.2019 00:36 15,8 C 15,6 C 15,0 C 71 % 1010,4 hPa 0,0 l/m 0 min 0 min 0 W/m 25,7 km/h (4 Bft) 95,74 %
08.06.2019 00:38 15,9 C 15,6 C 15,0 C 71 % 1010,5 hPa 0,0 l/m 0 min 0 min 0 W/m 29,0 km/h (5 Bft) 97,87 %
08.06.2019 00:40 15,9 C 15,6 C 15,0 C 71 % 1010,5 hPa 0,0 l/m 0 min 0 min 0 W/m 29,0 km/h (5 Bft) 100,00 %
08.06.2019 00:42 15,9 C 15,6 C 15,0 C 70 % 1010,3 hPa 0,0 l/m 0 min 0 min 0 W/m 29,0 km/h (5 Bft) 100,00 %
08.06.2019 00:44 16,0 C 15,6 C 15,0 C 70 % 1010,4 hPa 0,0 l/m 0 min 0 min 0 W/m 25,7 km/h (4 Bft) 97,87 %
08.06.2019 00:46 16,0 C 15,6 C 15,0 C 70 % 1010,5 hPa 0,0 l/m 0 min 0 min 0 W/m 29,0 km/h (5 Bft) 95,74 %
08.06.2019 00:48 16,0 C 15,6 C 15,0 C 69 % 1010,5 hPa 0,0 l/m 0 min 0 min 0 W/m 38,6 km/h (5 Bft) 94,29 %
08.06.2019 00:50 16,1 C 15,6 C 15,0 C 69 % 1010,4 hPa 0,0 l/m 0 min 0 min 0 W/m 22,5 km/h (4 Bft) 96,72 %
08.06.2019 00:52 16,1 C 15,0 C 15,0 C 69 % 1010,4 hPa 0,0 l/m 0 min 0 min 0 W/m 29,0 km/h (5 Bft) 95,74 %
08.06.2019 00:54 16,1 C 15,0 C 15,0 C 69 % 1010,3 hPa 0,0 l/m 0 min 0 min 0 W/m 29,0 km/h (5 Bft) 97,87 %
08.06.2019 00:56 16,0 C 15,6 C 15,0 C 69 % 1010,5 hPa 0,0 l/m 0 min 0 min 0 W/m 41,8 km/h (6 Bft) 97,87 %
08.06.2019 00:58 16,0 C 15,6 C 15,0 C 69 % 1010,3 hPa 0,0 l/m 0 min 0 min 0 W/m 29,0 km/h (5 Bft) 97,87 %
08.06.2019 01:00 16,1 C 15,0 C 15,0 C 69 % 1010,3 hPa 0,0 l/m 0 min 0 min 0 W/m 19,3 km/h (3 Bft) 97,83 %
08.06.2019 01:02 16,0 C 15,0 C 15,0 C 69 % 1010,3 hPa 0,0 l/m 0 min 0 min 0 W/m 22,5 km/h (4 Bft) 97,87 %
08.06.2019 01:04 16,0 C 15,0 C 14,4 C 69 % 1010,4 hPa 0,0 l/m 0 min 0 min 0 W/m 25,7 km/h (4 Bft) 97,87 %
08.06.2019 01:06 16,0 C 15,0 C 14,4 C 70 % 1010,4 hPa 0,0 l/m 0 min 0 min 0 W/m 25,7 km/h (4 Bft) 97,87 %
08.06.2019 01:08 16,0 C 15,0 C 14,4 C 70 % 1010,5 hPa 0,0 l/m 0 min 0 min 0 W/m 16,1 km/h (3 Bft) 97,87 %
08.06.2019 01:10 16,0 C 15,0 C 14,4 C 70 % 1010,4 hPa 0,0 l/m 0 min 0 min 0 W/m 29,0 km/h (5 Bft) 95,74 %
08.06.2019 01:12 15,9 C 15,0 C 14,4 C 70 % 1010,4 hPa 0,0 l/m 0 min 0 min 0 W/m 16,1 km/h (3 Bft) 97,83 %
08.06.2019 01:14 15,9 C 15,0 C 14,4 C 70 % 1010,5 hPa 0,0 l/m 0 min 0 min 0 W/m 29,0 km/h (5 Bft) 97,87 %
08.06.2019 01:16 15,9 C 15,0 C 14,4 C 70 % 1010,4 hPa 0,0 l/m 0 min 0 min 0 W/m 22,5 km/h (4 Bft) 95,74 %
08.06.2019 01:18 15,9 C 15,0 C 14,4 C 70 % 1010,5 hPa 0,0 l/m 0 min 0 min 0 W/m 19,3 km/h (3 Bft) 97,87 %
08.06.2019 01:20 15,9 C 15,0 C 14,4 C 70 % 1010,5 hPa 0,0 l/m 0 min 0 min 0 W/m 22,5 km/h (4 Bft) 97,87 %
08.06.2019 01:22 15,8 C 15,0 C 14,4 C 70 % 1010,5 hPa 0,0 l/m 0 min 0 min 0 W/m 25,7 km/h (4 Bft) 97,87 %
08.06.2019 01:24 15,8 C 15,0 C 14,4 C 70 % 1010,6 hPa 0,0 l/m 0 min 0 min 0 W/m 16,1 km/h (3 Bft) 97,83 %
08.06.2019 01:26 15,8 C 15,0 C 14,4 C 70 % 1010,7 hPa 0,0 l/m 0 min 0 min 0 W/m 22,5 km/h (4 Bft) 97,87 %
08.06.2019 01:28 15,8 C 15,0 C 14,4 C 70 % 1010,7 hPa 0,0 l/m 0 min 0 min 0 W/m 22,5 km/h (4 Bft) 95,74 %
08.06.2019 01:30 15,8 C 15,0 C 14,4 C 70 % 1010,7 hPa 0,0 l/m 0 min 0 min 0 W/m 16,1 km/h (3 Bft) 95,74 %
08.06.2019 01:32 15,8 C 15,0 C 14,4 C 70 % 1010,7 hPa 0,0 l/m 0 min 0 min 0 W/m 19,3 km/h (3 Bft) 95,74 %
08.06.2019 01:34 15,7 C 15,0 C 14,4 C 70 % 1010,7 hPa 0,0 l/m 0 min 0 min 0 W/m 29,0 km/h (5 Bft) 95,74 %
08.06.2019 01:36 15,7 C 15,0 C 14,4 C 70 % 1010,7 hPa 0,0 l/m 0 min 0 min 0 W/m 32,2 km/h (5 Bft) 95,65 %
08.06.2019 01:38 15,7 C 15,0 C 14,4 C 70 % 1010,8 hPa 0,0 l/m 0 min 0 min 0 W/m 22,5 km/h (4 Bft) 97,87 %
08.06.2019 01:40 15,7 C 15,0 C 14,4 C 70 % 1010,8 hPa 0,0 l/m 0 min 0 min 0 W/m 16,1 km/h (3 Bft) 97,87 %
08.06.2019 01:42 15,7 C 15,0 C 14,4 C 70 % 1010,9 hPa 0,0 l/m 0 min 0 min 0 W/m 25,7 km/h (4 Bft) 97,87 %
08.06.2019 01:44 15,7 C 15,0 C 14,4 C 70 % 1010,6 hPa 0,0 l/m 0 min 0 min 0 W/m 35,4 km/h (5 Bft) 97,87 %
08.06.2019 01:46 15,7 C 15,0 C 14,4 C 69 % 1010,8 hPa 0,0 l/m 0 min 0 min 0 W/m 32,2 km/h (5 Bft) 95,65 %
08.06.2019 01:48 15,6 C 14,4 C 14,4 C 69 % 1010,7 hPa 0,0 l/m 0 min 0 min 0 W/m 25,7 km/h (4 Bft) 97,87 %
08.06.2019 01:50 15,6 C 14,4 C 14,4 C 69 % 1010,7 hPa 0,0 l/m 0 min 0 min 0 W/m 29,0 km/h (5 Bft) 97,87 %
08.06.2019 01:52 15,6 C 14,4 C 13,9 C 69 % 1010,8 hPa 0,0 l/m 0 min 0 min 0 W/m 22,5 km/h (4 Bft) 100,00 %
08.06.2019 01:54 15,6 C 14,4 C 13,9 C 69 % 1010,7 hPa 0,0 l/m 0 min 0 min 0 W/m 25,7 km/h (4 Bft) 97,87 %
08.06.2019 01:56 15,6 C 14,4 C 13,9 C 69 % 1010,7 hPa 0,0 l/m 0 min 0 min 0 W/m 25,7 km/h (4 Bft) 93,62 %
08.06.2019 01:58 15,6 C 14,4 C 13,9 C 70 % 1010,7 hPa 0,0 l/m 0 min 0 min 0 W/m 22,5 km/h (4 Bft) 97,87 %
08.06.2019 02:00 15,5 C 14,4 C 13,9 C 69 % 1010,7 hPa 0,0 l/m 0 min 0 min 0 W/m 32,2 km/h (5 Bft) 97,83 %
08.06.2019 02:02 15,5 C 14,4 C 13,9 C 69 % 1010,6 hPa 0,0 l/m 0 min 0 min 0 W/m 29,0 km/h (5 Bft) 95,74 %
08.06.2019 02:04 15,4 C 14,4 C 14,4 C 69 % 1010,6 hPa 0,0 l/m 0 min 0 min 0 W/m 22,5 km/h (4 Bft) 95,74 %
08.06.2019 02:06 15,4 C 14,4 C 14,4 C 69 % 1010,7 hPa 0,0 l/m 0 min 0 min 0 W/m 22,5 km/h (4 Bft) 93,62 %
08.06.2019 02:08 15,4 C 14,4 C 14,4 C 69 % 1010,7 hPa 0,0 l/m 0 min 0 min 0 W/m 25,7 km/h (4 Bft) 95,74 %
08.06.2019 02:10 15,4 C 14,4 C 14,4 C 69 % 1010,7 hPa 0,0 l/m 0 min 0 min 0 W/m 29,0 km/h (5 Bft) 97,87 %
08.06.2019 02:12 15,4 C 15,0 C 14,4 C 69 % 1010,8 hPa 0,0 l/m 0 min 0 min 0 W/m 22,5 km/h (4 Bft) 95,65 %
08.06.2019 02:14 15,4 C 14,4 C 14,4 C 69 % 1010,8 hPa 0,0 l/m 0 min 0 min 0 W/m 22,5 km/h (4 Bft) 95,74 %
08.06.2019 02:16 15,4 C 14,4 C 14,4 C 68 % 1010,8 hPa 0,0 l/m 0 min 0 min 0 W/m 29,0 km/h (5 Bft) 97,87 %
08.06.2019 02:18 15,4 C 14,4 C 14,4 C 68 % 1010,8 hPa 0,0 l/m 0 min 0 min 0 W/m 25,7 km/h (4 Bft) 97,87 %
08.06.2019 02:20 15,4 C 14,4 C 14,4 C 68 % 1010,9 hPa 0,0 l/m 0 min 0 min 0 W/m 29,0 km/h (5 Bft) 95,74 %
08.06.2019 02:22 15,4 C 14,4 C 14,4 C 68 % 1010,9 hPa 0,0 l/m 0 min 0 min 0 W/m 12,9 km/h (3 Bft) 95,65 %
08.06.2019 02:24 15,4 C 14,4 C 14,4 C 68 % 1011,0 hPa 0,0 l/m 0 min 0 min 0 W/m 12,9 km/h (3 Bft) 95,74 %
08.06.2019 02:26 15,4 C 14,4 C 14,4 C 68 % 1010,9 hPa 0,0 l/m 0 min 0 min 0 W/m 19,3 km/h (3 Bft) 97,87 %
08.06.2019 02:28 15,4 C 14,4 C 14,4 C 68 % 1010,9 hPa 0,0 l/m 0 min 0 min 0 W/m 32,2 km/h (5 Bft) 95,74 %
08.06.2019 02:30 15,4 C 15,0 C 14,4 C 67 % 1010,9 hPa 0,0 l/m 0 min 0 min 0 W/m 32,2 km/h (5 Bft) 95,74 %
08.06.2019 02:32 15,4 C 15,0 C 14,4 C 67 % 1011,1 hPa 0,0 l/m 0 min 0 min 0 W/m 16,1 km/h (3 Bft) 95,74 %
08.06.2019 02:34 15,4 C 15,0 C 14,4 C 67 % 1011,2 hPa 0,0 l/m 0 min 0 min 0 W/m 35,4 km/h (5 Bft) 97,83 %
08.06.2019 02:36 15,4 C 15,0 C 14,4 C 66 % 1011,0 hPa 0,0 l/m 0 min 0 min 0 W/m 32,2 km/h (5 Bft) 97,87 %
08.06.2019 02:38 15,4 C 15,0 C 14,4 C 66 % 1011,1 hPa 0,0 l/m 0 min 0 min 0 W/m 38,6 km/h (5 Bft) 97,87 %
08.06.2019 02:40 15,5 C 15,0 C 14,4 C 66 % 1011,2 hPa 0,0 l/m 0 min 0 min 0 W/m 32,2 km/h (5 Bft) 97,87 %
08.06.2019 02:42 15,5 C 15,0 C 14,4 C 66 % 1011,2 hPa 0,0 l/m 0 min 0 min 0 W/m 16,1 km/h (3 Bft) 97,87 %
08.06.2019 02:44 15,6 C 15,0 C 14,4 C 66 % 1011,1 hPa 0,0 l/m 0 min 0 min 0 W/m 29,0 km/h (5 Bft) 97,87 %
08.06.2019 02:46 15,6 C 15,0 C 14,4 C 66 % 1011,1 hPa 0,0 l/m 0 min 0 min 0 W/m 22,5 km/h (4 Bft) 95,65 %
08.06.2019 02:48 15,6 C 15,0 C 14,4 C 66 % 1011,1 hPa 0,0 l/m 0 min 0 min 0 W/m 19,3 km/h (3 Bft) 91,49 %
08.06.2019 02:50 15,6 C 15,0 C 14,4 C 66 % 1011,2 hPa 0,0 l/m 0 min 0 min 0 W/m 25,7 km/h (4 Bft) 95,74 %
08.06.2019 02:52 15,6 C 15,0 C 14,4 C 66 % 1011,1 hPa 0,0 l/m 0 min 0 min 0 W/m 32,2 km/h (5 Bft) 97,87 %
08.06.2019 02:54 15,6 C 15,0 C 14,4 C 66 % 1011,2 hPa 0,0 l/m 0 min 0 min 0 W/m 25,7 km/h (4 Bft) 97,87 %
08.06.2019 02:56 15,6 C 15,0 C 14,4 C 66 % 1011,2 hPa 0,0 l/m 0 min 0 min 0 W/m 29,0 km/h (5 Bft) 97,87 %
08.06.2019 02:58 15,6 C 15,0 C 14,4 C 66 % 1011,3 hPa 0,0 l/m 0 min 0 min 0 W/m 25,7 km/h (4 Bft) 97,83 %
08.06.2019 03:00 15,6 C 15,0 C 14,4 C 66 % 1011,3 hPa 0,0 l/m 0 min 0 min 0 W/m 16,1 km/h (3 Bft) 97,87 %
08.06.2019 03:02 15,6 C 15,0 C 14,4 C 66 % 1011,2 hPa 0,0 l/m 0 min 0 min 0 W/m 19,3 km/h (3 Bft) 95,74 %
08.06.2019 03:04 15,6 C 15,0 C 14,4 C 66 % 1011,3 hPa 0,0 l/m 0 min 0 min 0 W/m 22,5 km/h (4 Bft) 97,87 %
08.06.2019 03:06 15,6 C 15,0 C 14,4 C 66 % 1011,2 hPa 0,0 l/m 0 min 0 min 0 W/m 32,2 km/h (5 Bft) 100,00 %
08.06.2019 03:08 15,6 C 15,0 C 14,4 C 66 % 1011,2 hPa 0,0 l/m 0 min 0 min 0 W/m 29,0 km/h (5 Bft) 97,87 %
08.06.2019 03:10 15,6 C 15,0 C 14,4 C 66 % 1011,2 hPa 0,0 l/m 0 min 0 min 0 W/m 35,4 km/h (5 Bft) 97,83 %
08.06.2019 03:12 15,6 C 15,0 C 14,4 C 66 % 1011,3 hPa 0,0 l/m 0 min 0 min 0 W/m 35,4 km/h (5 Bft) 97,87 %
08.06.2019 03:14 15,6 C 15,0 C 14,4 C 65 % 1011,4 hPa 0,0 l/m 0 min 0 min 0 W/m 38,6 km/h (5 Bft) 97,87 %
08.06.2019 03:16 15,6 C 15,0 C 14,4 C 65 % 1011,4 hPa 0,0 l/m 0 min 0 min 0 W/m 25,7 km/h (4 Bft) 100,00 %
08.06.2019 03:18 15,6 C 15,0 C 14,4 C 66 % 1011,4 hPa 0,0 l/m 0 min 0 min 0 W/m 25,7 km/h (4 Bft) 100,00 %
08.06.2019 03:20 15,6 C 15,0 C 14,4 C 66 % 1011,4 hPa 0,0 l/m 0 min 0 min 0 W/m 29,0 km/h (5 Bft) 100,00 %
08.06.2019 03:22 15,6 C 15,0 C 14,4 C 66 % 1011,4 hPa 0,0 l/m 0 min 0 min 0 W/m 38,6 km/h (5 Bft) 97,87 %
08.06.2019 03:24 15,6 C 14,4 C 14,4 C 66 % 1011,4 hPa 0,0 l/m 0 min 0 min 0 W/m 19,3 km/h (3 Bft) 97,87 %
08.06.2019 03:26 15,6 C 14,4 C 14,4 C 65 % 1011,4 hPa 0,0 l/m 0 min 0 min 0 W/m 32,2 km/h (5 Bft) 100,00 %
08.06.2019 03:28 15,6 C 14,4 C 14,4 C 65 % 1011,5 hPa 0,0 l/m 0 min 0 min 0 W/m 29,0 km/h (5 Bft) 100,00 %
08.06.2019 03:30 15,5 C 14,4 C 14,4 C 65 % 1011,4 hPa 0,0 l/m 0 min 0 min 0 W/m 29,0 km/h (5 Bft) 100,00 %
08.06.2019 03:32 15,5 C 14,4 C 14,4 C 65 % 1011,6 hPa 0,0 l/m 0 min 0 min 0 W/m 29,0 km/h (5 Bft) 95,65 %
08.06.2019 03:34 15,5 C 14,4 C 14,4 C 65 % 1011,5 hPa 0,0 l/m 0 min 0 min 0 W/m 35,4 km/h (5 Bft) 100,00 %
08.06.2019 03:36 15,4 C 14,4 C 14,4 C 65 % 1011,4 hPa 0,0 l/m 0 min 0 min 0 W/m 22,5 km/h (4 Bft) 100,00 %
08.06.2019 03:38 15,4 C 14,4 C 13,9 C 65 % 1011,4 hPa 0,0 l/m 0 min 0 min 0 W/m 25,7 km/h (4 Bft) 100,00 %
08.06.2019 03:40 15,4 C 14,4 C 13,9 C 65 % 1011,5 hPa 0,0 l/m 0 min 0 min 0 W/m 29,0 km/h (5 Bft) 97,87 %
08.06.2019 03:42 15,4 C 14,4 C 13,9 C 65 % 1011,5 hPa 0,0 l/m 0 min 0 min 0 W/m 19,3 km/h (3 Bft) 100,00 %
08.06.2019 03:44 15,4 C 14,4 C 13,9 C 65 % 1011,4 hPa 0,0 l/m 0 min 0 min 0 W/m 19,3 km/h (3 Bft) 100,00 %
08.06.2019 03:46 15,4 C 14,4 C 13,9 C 65 % 1011,5 hPa 0,0 l/m 0 min 0 min 0 W/m 22,5 km/h (4 Bft) 97,87 %
08.06.2019 03:48 15,4 C 14,4 C 13,9 C 65 % 1011,5 hPa 0,0 l/m 0 min 0 min 0 W/m 29,0 km/h (5 Bft) 97,87 %
08.06.2019 03:50 15,3 C 14,4 C 13,9 C 65 % 1011,6 hPa 0,0 l/m 0 min 0 min 0 W/m 32,2 km/h (5 Bft) 97,87 %
08.06.2019 03:52 15,3 C 14,4 C 13,9 C 66 % 1011,6 hPa 0,0 l/m 0 min 0 min 0 W/m 32,2 km/h (5 Bft) 95,74 %
08.06.2019 03:54 15,3 C 14,4 C 13,9 C 65 % 1011,6 hPa 0,0 l/m 0 min 0 min 0 W/m 38,6 km/h (5 Bft) 97,87 %
08.06.2019 03:56 15,3 C 14,4 C 13,9 C 65 % 1011,5 hPa 0,0 l/m 0 min 0 min 0 W/m 22,5 km/h (4 Bft) 97,83 %
08.06.2019 03:58 15,3 C 14,4 C 13,9 C 65 % 1011,6 hPa 0,0 l/m 0 min 0 min 0 W/m 32,2 km/h (5 Bft) 97,87 %
08.06.2019 04:00 15,3 C 14,4 C 13,9 C 66 % 1011,7 hPa 0,0 l/m 0 min 0 min 0 W/m 19,3 km/h (3 Bft) 97,87 %
08.06.2019 04:02 15,3 C 14,4 C 13,9 C 66 % 1011,7 hPa 0,0 l/m 0 min 0 min 0 W/m 19,3 km/h (3 Bft) 100,00 %
08.06.2019 04:04 15,2 C 14,4 C 13,9 C 66 % 1011,7 hPa 0,0 l/m 0 min 0 min 0 W/m 29,0 km/h (5 Bft) 95,74 %
08.06.2019 04:06 15,2 C 14,4 C 13,9 C 66 % 1011,9 hPa 0,0 l/m 0 min 0 min 0 W/m 35,4 km/h (5 Bft) 93,48 %
08.06.2019 04:08 15,2 C 14,4 C 13,9 C 66 % 1011,7 hPa 0,0 l/m 0 min 0 min 0 W/m 25,7 km/h (4 Bft) 97,87 %
08.06.2019 04:10 15,2 C 14,4 C 13,9 C 66 % 1011,9 hPa 0,0 l/m 0 min 0 min 0 W/m 32,2 km/h (5 Bft) 97,87 %
08.06.2019 04:12 15,2 C 14,4 C 13,9 C 66 % 1012,0 hPa 0,0 l/m 0 min 0 min 0 W/m 41,8 km/h (6 Bft) 95,74 %
08.06.2019 04:14 15,2 C 14,4 C 13,9 C 65 % 1011,8 hPa 0,0 l/m 0 min 0 min 0 W/m 35,4 km/h (5 Bft) 95,74 %
08.06.2019 04:16 15,1 C 14,4 C 13,9 C 66 % 1011,8 hPa 0,0 l/m 0 min 0 min 0 W/m 25,7 km/h (4 Bft) 95,74 %
08.06.2019 04:18 15,2 C 14,4 C 13,9 C 66 % 1011,9 hPa 0,0 l/m 0 min 0 min 0 W/m 22,5 km/h (4 Bft) 95,74 %
08.06.2019 04:20 15,1 C 14,4 C 13,9 C 66 % 1011,9 hPa 0,0 l/m 0 min 0 min 0 W/m 32,2 km/h (5 Bft) 95,65 %
08.06.2019 04:22 15,1 C 14,4 C 13,9 C 66 % 1011,9 hPa 0,0 l/m 0 min 0 min 0 W/m 29,0 km/h (5 Bft) 93,62 %
08.06.2019 04:24 15,1 C 14,4 C 13,9 C 66 % 1012,0 hPa 0,0 l/m 0 min 0 min 0 W/m 35,4 km/h (5 Bft) 95,74 %
08.06.2019 04:26 15,1 C 14,4 C 13,9 C 65 % 1011,8 hPa 0,0 l/m 0 min 0 min 0 W/m 22,5 km/h (4 Bft) 95,74 %
08.06.2019 04:28 15,1 C 14,4 C 13,9 C 65 % 1012,0 hPa 0,0 l/m 0 min 0 min 0 W/m 35,4 km/h (5 Bft) 93,62 %
08.06.2019 04:30 15,1 C 14,4 C 13,9 C 65 % 1012,1 hPa 0,0 l/m 0 min 0 min 0 W/m 29,0 km/h (5 Bft) 93,62 %
08.06.2019 04:32 15,1 C 14,4 C 13,9 C 65 % 1012,1 hPa 0,0 l/m 0 min 0 min 0 W/m 41,8 km/h (6 Bft) 95,65 %
08.06.2019 04:34 15,1 C 14,4 C 13,9 C 65 % 1011,9 hPa 0,0 l/m 0 min 0 min 0 W/m 29,0 km/h (5 Bft) 95,74 %
08.06.2019 04:36 15,0 C 14,4 C 13,9 C 64 % 1012,1 hPa 0,0 l/m 0 min 0 min 0 W/m 45,1 km/h (6 Bft) 97,87 %
08.06.2019 04:38 15,0 C 14,4 C 13,9 C 65 % 1012,0 hPa 0,0 l/m 0 min 0 min 0 W/m 48,3 km/h (6 Bft) 97,87 %
08.06.2019 04:40 15,0 C 14,4 C 13,9 C 64 % 1012,2 hPa 0,0 l/m 0 min 0 min 0 W/m 45,1 km/h (6 Bft) 95,74 %
08.06.2019 04:42 15,0 C 14,4 C 13,9 C 64 % 1012,1 hPa 0,0 l/m 0 min 0 min 0 W/m 70,8 km/h (8 Bft) 97,83 %
08.06.2019 04:44 15,0 C 14,4 C 13,9 C 64 % 1012,1 hPa 0,0 l/m 0 min 0 min 0 W/m 35,4 km/h (5 Bft) 97,87 %
08.06.2019 04:46 15,0 C 14,4 C 13,9 C 64 % 1012,3 hPa 0,0 l/m 0 min 0 min 0 W/m 51,5 km/h (7 Bft) 97,87 %
08.06.2019 04:48 14,9 C 14,4 C 13,9 C 64 % 1012,3 hPa 0,0 l/m 0 min 0 min 0 W/m 41,8 km/h (6 Bft) 97,87 %
08.06.2019 04:50 14,9 C 13,9 C 13,9 C 65 % 1012,1 hPa 0,0 l/m 0 min 0 min 0 W/m 48,3 km/h (6 Bft) 95,74 %
08.06.2019 04:52 14,9 C 13,9 C 13,9 C 64 % 1012,2 hPa 0,0 l/m 0 min 0 min 0 W/m 48,3 km/h (6 Bft) 97,87 %
08.06.2019 04:54 14,9 C 13,9 C 13,9 C 64 % 1012,3 hPa 0,0 l/m 0 min 0 min 0 W/m 45,1 km/h (6 Bft) 97,83 %
08.06.2019 04:56 14,9 C 14,4 C 13,9 C 64 % 1012,3 hPa 0,0 l/m 0 min 0 min 0 W/m 64,4 km/h (8 Bft) 95,74 %
08.06.2019 04:58 14,9 C 14,4 C 13,9 C 64 % 1012,1 hPa 0,0 l/m 0 min 0 min 0 W/m 48,3 km/h (6 Bft) 97,87 %
08.06.2019 05:00 14,9 C 14,4 C 13,9 C 64 % 1012,0 hPa 0,0 l/m 0 min 0 min 0 W/m 57,9 km/h (7 Bft) 100,00 %
08.06.2019 05:02 14,9 C 14,4 C 13,9 C 64 % 1012,3 hPa 0,0 l/m 0 min 0 min 0 W/m 51,5 km/h (7 Bft) 100,00 %
08.06.2019 05:04 14,9 C 14,4 C 13,9 C 64 % 1012,2 hPa 0,0 l/m 0 min 0 min 0 W/m 41,8 km/h (6 Bft) 97,87 %
08.06.2019 05:05 14,9 C 14,4 C 13,9 C 64 % 1012,3 hPa 0,0 l/m 0 min 0 min 0 W/m 54,7 km/h (7 Bft) 100,00 %
08.06.2019 05:10 14,9 C 13,9 C 13,9 C 64 % 1012,4 hPa 0,0 l/m 0 min 0 min 0 W/m 48,3 km/h (6 Bft) 100,00 %
08.06.2019 05:15 14,9 C 13,9 C 13,9 C 64 % 1012,5 hPa 0,0 l/m 0 min 0 min 0 W/m 32,2 km/h (5 Bft) 100,00 %
08.06.2019 05:20 14,8 C 13,9 C 13,9 C 64 % 1012,6 hPa 0,0 l/m 0 min 0 min 0 W/m 45,1 km/h (6 Bft) 96,43 %
08.06.2019 05:22 14,8 C 13,9 C 13,9 C 65 % 1012,7 hPa 0,0 l/m 0 min 0 min 0 W/m 38,6 km/h (5 Bft) 97,83 %
08.06.2019 05:24 14,8 C 13,9 C 13,9 C 65 % 1012,7 hPa 0,0 l/m 0 min 0 min 0 W/m 54,7 km/h (7 Bft) 97,87 %
08.06.2019 05:26 14,8 C 13,9 C 13,9 C 65 % 1012,6 hPa 0,0 l/m 0 min 0 min 0 W/m 35,4 km/h (5 Bft) 97,87 %
08.06.2019 05:28 14,8 C 13,9 C 13,9 C 65 % 1012,7 hPa 0,0 l/m 0 min 0 min 0 W/m 29,0 km/h (5 Bft) 97,87 %
08.06.2019 05:30 14,8 C 13,9 C 13,9 C 65 % 1012,6 hPa 0,0 l/m 0 min 0 min 0 W/m 35,4 km/h (5 Bft) 100,00 %
08.06.2019 05:32 14,8 C 13,9 C 13,9 C 65 % 1012,8 hPa 0,0 l/m 0 min 0 min 0 W/m 54,7 km/h (7 Bft) 100,00 %
08.06.2019 05:34 14,8 C 13,9 C 13,9 C 65 % 1012,7 hPa 0,0 l/m 0 min 0 min 0 W/m 41,8 km/h (6 Bft) 100,00 %
08.06.2019 05:36 14,8 C 13,9 C 13,9 C 65 % 1012,7 hPa 0,0 l/m 0 min 0 min 0 W/m 38,6 km/h (5 Bft) 100,00 %
08.06.2019 05:38 14,8 C 13,9 C 13,9 C 65 % 1012,7 hPa 0,0 l/m 0 min 0 min 0 W/m 38,6 km/h (5 Bft) 100,00 %
08.06.2019 05:40 14,8 C 13,9 C 13,3 C 65 % 1012,8 hPa 0,0 l/m 0 min 0 min 0 W/m 29,0 km/h (5 Bft) 100,00 %
08.06.2019 05:42 14,8 C 13,9 C 13,3 C 65 % 1012,8 hPa 0,0 l/m 0 min 0 min 0 W/m 29,0 km/h (5 Bft) 97,87 %
08.06.2019 05:44 14,7 C 13,9 C 13,3 C 66 % 1012,8 hPa 0,0 l/m 0 min 0 min 0 W/m 32,2 km/h (5 Bft) 97,87 %
08.06.2019 05:46 14,7 C 13,9 C 13,3 C 66 % 1013,2 hPa 0,0 l/m 0 min 0 min 0 W/m 29,0 km/h (5 Bft) 97,87 %
08.06.2019 05:48 14,7 C 13,9 C 13,3 C 66 % 1012,9 hPa 0,0 l/m 0 min 0 min 0 W/m 35,4 km/h (5 Bft) 97,83 %
08.06.2019 05:50 14,7 C 13,9 C 13,3 C 66 % 1012,8 hPa 0,0 l/m 0 min 0 min 0 W/m 41,8 km/h (6 Bft) 97,87 %
08.06.2019 05:52 14,7 C 13,9 C 13,3 C 65 % 1012,7 hPa 0,0 l/m 0 min 0 min 0 W/m 48,3 km/h (6 Bft) 97,87 %
08.06.2019 05:54 14,7 C 13,9 C 13,3 C 65 % 1013,1 hPa 0,0 l/m 0 min 0 min 0 W/m 48,3 km/h (6 Bft) 97,87 %
08.06.2019 05:56 14,7 C 13,9 C 13,3 C 66 % 1013,1 hPa 0,0 l/m 0 min 0 min 0 W/m 32,2 km/h (5 Bft) 97,87 %
08.06.2019 05:58 14,7 C 13,9 C 13,3 C 66 % 1013,0 hPa 0,0 l/m 0 min 0 min 0 W/m 32,2 km/h (5 Bft) 97,87 %
08.06.2019 06:00 14,6 C 13,9 C 13,3 C 66 % 1012,9 hPa 0,0 l/m 0 min 0 min 0 W/m 19,3 km/h (3 Bft) 97,83 %
08.06.2019 06:02 14,6 C 13,9 C 13,3 C 66 % 1013,0 hPa 0,0 l/m 0 min 0 min 0 W/m 25,7 km/h (4 Bft) 93,62 %
08.06.2019 06:04 14,6 C 13,9 C 13,3 C 66 % 1013,3 hPa 0,0 l/m 0 min 0 min 0 W/m 45,1 km/h (6 Bft) 97,87 %
08.06.2019 06:07 14,6 C 13,9 C 13,3 C 66 % 1013,2 hPa 0,0 l/m 0 min 0 min 0 W/m 45,1 km/h (6 Bft) 97,56 %
08.06.2019 06:08 14,6 C 13,9 C 13,3 C 66 % 1013,2 hPa 0,0 l/m 0 min 0 min 0 W/m 25,7 km/h (4 Bft) 91,67 %
08.06.2019 06:10 14,6 C 13,9 C 13,3 C 66 % 1013,1 hPa 0,0 l/m 0 min 0 min 0 W/m 38,6 km/h (5 Bft) 97,87 %
08.06.2019 06:12 14,6 C 13,9 C 13,3 C 66 % 1013,4 hPa 0,0 l/m 0 min 0 min 0 W/m 32,2 km/h (5 Bft) 95,65 %
08.06.2019 06:14 14,6 C 13,9 C 13,3 C 66 % 1013,2 hPa 0,0 l/m 0 min 0 min 0 W/m 35,4 km/h (5 Bft) 97,87 %
08.06.2019 06:16 14,5 C 13,9 C 13,3 C 66 % 1013,2 hPa 0,0 l/m 0 min 0 min 0 W/m 32,2 km/h (5 Bft) 97,87 %
08.06.2019 06:18 14,5 C 13,9 C 13,3 C 66 % 1013,2 hPa 0,0 l/m 0 min 0 min 0 W/m 38,6 km/h (5 Bft) 97,87 %
08.06.2019 06:20 14,5 C 13,9 C 13,3 C 66 % 1013,4 hPa 0,0 l/m 0 min 0 min 0 W/m 41,8 km/h (6 Bft) 97,87 %
08.06.2019 06:22 14,5 C 13,9 C 13,3 C 66 % 1013,4 hPa 0,0 l/m 0 min 0 min 0 W/m 48,3 km/h (6 Bft) 97,83 %
08.06.2019 06:24 14,4 C 13,9 C 13,3 C 66 % 1013,4 hPa 0,0 l/m 0 min 0 min 2 W/m 38,6 km/h (5 Bft) 97,87 %
08.06.2019 06:26 14,4 C 13,9 C 13,3 C 66 % 1013,4 hPa 0,0 l/m 0 min 0 min 5 W/m 35,4 km/h (5 Bft) 95,74 %
08.06.2019 06:28 14,4 C 13,9 C 13,3 C 66 % 1013,4 hPa 0,0 l/m 0 min 0 min 6 W/m 38,6 km/h (5 Bft) 93,62 %
08.06.2019 06:30 14,4 C 13,9 C 13,3 C 66 % 1013,5 hPa 0,0 l/m 0 min 0 min 6 W/m 38,6 km/h (5 Bft) 97,87 %
08.06.2019 06:32 14,4 C 13,9 C 13,3 C 67 % 1013,4 hPa 0,0 l/m 0 min 0 min 12 W/m 35,4 km/h (5 Bft) 95,74 %
08.06.2019 06:34 14,4 C 13,9 C 13,3 C 66 % 1013,4 hPa 0,0 l/m 0 min 0 min 14 W/m 51,5 km/h (7 Bft) 95,65 %
08.06.2019 06:36 14,4 C 13,9 C 13,3 C 66 % 1013,5 hPa 0,0 l/m 0 min 0 min 16 W/m 38,6 km/h (5 Bft) 96,61 %
08.06.2019 06:38 14,4 C 13,9 C 13,3 C 66 % 1013,4 hPa 0,0 l/m 0 min 0 min 18 W/m 38,6 km/h (5 Bft) 94,29 %
08.06.2019 06:40 14,4 C 13,9 C 13,3 C 67 % 1013,3 hPa 0,0 l/m 0 min 0 min 18 W/m 25,7 km/h (4 Bft) 100,00 %
08.06.2019 06:42 14,3 C 13,9 C 13,3 C 67 % 1013,4 hPa 0,0 l/m 0 min 0 min 16 W/m 48,3 km/h (6 Bft) 95,74 %
08.06.2019 06:44 14,3 C 13,9 C 13,3 C 67 % 1013,5 hPa 0,0 l/m 0 min 0 min 16 W/m 45,1 km/h (6 Bft) 97,87 %
08.06.2019 06:46 14,3 C 13,9 C 13,3 C 67 % 1013,4 hPa 0,0 l/m 0 min 0 min 23 W/m 32,2 km/h (5 Bft) 97,83 %
08.06.2019 06:48 14,3 C 13,9 C 13,3 C 67 % 1013,5 hPa 0,0 l/m 0 min 0 min 28 W/m 29,0 km/h (5 Bft) 93,62 %
08.06.2019 06:50 14,3 C 13,9 C 13,3 C 67 % 1013,5 hPa 0,0 l/m 0 min 0 min 26 W/m 29,0 km/h (5 Bft) 97,87 %
08.06.2019 06:52 14,3 C 13,9 C 13,3 C 67 % 1013,6 hPa 0,0 l/m 0 min 0 min 23 W/m 25,7 km/h (4 Bft) 97,87 %
08.06.2019 06:54 14,3 C 13,9 C 13,3 C 67 % 1013,5 hPa 0,0 l/m 0 min 0 min 27 W/m 45,1 km/h (6 Bft) 95,74 %
08.06.2019 06:56 14,3 C 13,9 C 13,3 C 67 % 1013,6 hPa 0,0 l/m 0 min 0 min 28 W/m 38,6 km/h (5 Bft) 95,74 %
08.06.2019 06:58 14,3 C 13,9 C 13,3 C 67 % 1013,6 hPa 0,0 l/m 0 min 0 min 24 W/m 35,4 km/h (5 Bft) 95,65 %
08.06.2019 07:00 14,3 C 13,9 C 13,3 C 67 % 1013,6 hPa 0,0 l/m 0 min 0 min 21 W/m 38,6 km/h (5 Bft) 95,74 %
08.06.2019 07:02 14,2 C 13,9 C 13,3 C 67 % 1013,8 hPa 0,0 l/m 0 min 0 min 25 W/m 29,0 km/h (5 Bft) 95,74 %
08.06.2019 07:04 14,2 C 13,9 C 13,3 C 67 % 1013,7 hPa 0,0 l/m 0 min 0 min 27 W/m 38,6 km/h (5 Bft) 93,62 %
08.06.2019 07:06 14,2 C 13,9 C 13,3 C 67 % 1014,1 hPa 0,0 l/m 0 min 0 min 24 W/m 35,4 km/h (5 Bft) 96,55 %
08.06.2019 07:08 14,2 C 13,9 C 13,3 C 67 % 1013,8 hPa 0,0 l/m 0 min 0 min 23 W/m 29,0 km/h (5 Bft) 95,35 %
08.06.2019 07:10 14,2 C 13,3 C 13,3 C 67 % 1013,9 hPa 0,0 l/m 0 min 0 min 22 W/m 29,0 km/h (5 Bft) 95,74 %
08.06.2019 07:12 14,2 C 13,3 C 13,3 C 67 % 1013,9 hPa 0,0 l/m 0 min 0 min 22 W/m 35,4 km/h (5 Bft) 95,74 %
08.06.2019 07:14 14,2 C 13,3 C 13,3 C 67 % 1013,9 hPa 0,0 l/m 0 min 0 min 19 W/m 38,6 km/h (5 Bft) 95,65 %
08.06.2019 07:16 14,2 C 13,3 C 12,8 C 67 % 1014,0 hPa 0,0 l/m 0 min 0 min 17 W/m 25,7 km/h (4 Bft) 95,74 %
08.06.2019 07:18 14,2 C 13,3 C 12,8 C 67 % 1014,0 hPa 0,0 l/m 0 min 0 min 13 W/m 29,0 km/h (5 Bft) 93,62 %
08.06.2019 07:20 14,2 C 13,3 C 12,8 C 67 % 1014,1 hPa 0,0 l/m 0 min 0 min 12 W/m 45,1 km/h (6 Bft) 95,74 %
08.06.2019 07:22 14,2 C 13,3 C 12,8 C 67 % 1014,1 hPa 0,0 l/m 0 min 0 min 12 W/m 45,1 km/h (6 Bft) 95,74 %
08.06.2019 07:24 14,2 C 13,3 C 12,8 C 67 % 1014,1 hPa 0,0 l/m 0 min 0 min 12 W/m 22,5 km/h (4 Bft) 93,62 %
08.06.2019 07:26 14,2 C 13,3 C 12,8 C 67 % 1014,1 hPa 0,0 l/m 0 min 0 min 13 W/m 29,0 km/h (5 Bft) 95,65 %
08.06.2019 07:28 14,2 C 13,3 C 12,8 C 67 % 1014,1 hPa 0,0 l/m 0 min 0 min 15 W/m 45,1 km/h (6 Bft) 93,62 %
08.06.2019 07:30 14,2 C 13,3 C 12,8 C 67 % 1014,2 hPa 0,0 l/m 0 min 0 min 17 W/m 35,4 km/h (5 Bft) 95,74 %
08.06.2019 07:32 14,2 C 13,3 C 12,8 C 67 % 1014,2 hPa 0,0 l/m 0 min 0 min 18 W/m 35,4 km/h (5 Bft) 95,74 %
08.06.2019 07:34 14,2 C 13,3 C 12,8 C 67 % 1014,2 hPa 0,0 l/m 0 min 0 min 17 W/m 32,2 km/h (5 Bft) 97,87 %
08.06.2019 07:36 14,2 C 13,3 C 12,8 C 67 % 1014,2 hPa 0,0 l/m 0 min 0 min 16 W/m 29,0 km/h (5 Bft) 95,74 %
08.06.2019 07:38 14,1 C 13,3 C 12,8 C 67 % 1014,2 hPa 0,0 l/m 0 min 0 min 14 W/m 32,2 km/h (5 Bft) 97,96 %
08.06.2019 07:40 14,1 C 13,3 C 12,8 C 67 % 1014,2 hPa 0,0 l/m 0 min 0 min 12 W/m 41,8 km/h (6 Bft) 97,87 %
08.06.2019 07:42 14,1 C 13,3 C 12,8 C 68 % 1014,3 hPa 0,0 l/m 0 min 0 min 15 W/m 41,8 km/h (6 Bft) 97,87 %
08.06.2019 07:44 14,1 C 13,3 C 12,8 C 68 % 1014,3 hPa 0,0 l/m 0 min 0 min 17 W/m 32,2 km/h (5 Bft) 100,00 %
08.06.2019 07:46 14,1 C 13,3 C 12,8 C 68 % 1014,3 hPa 0,0 l/m 0 min 0 min 17 W/m 38,6 km/h (5 Bft) 95,74 %
08.06.2019 07:48 14,0 C 13,3 C 12,8 C 68 % 1014,4 hPa 0,0 l/m 0 min 0 min 17 W/m 48,3 km/h (6 Bft) 95,65 %
08.06.2019 07:50 14,0 C 13,3 C 12,8 C 68 % 1014,3 hPa 0,0 l/m 0 min 0 min 18 W/m 29,0 km/h (5 Bft) 100,00 %
08.06.2019 07:52 14,0 C 12,8 C 12,8 C 68 % 1014,5 hPa 0,0 l/m 0 min 0 min 23 W/m 38,6 km/h (5 Bft) 97,87 %
08.06.2019 07:54 14,0 C 13,3 C 12,8 C 69 % 1014,3 hPa 0,0 l/m 0 min 0 min 26 W/m 29,0 km/h (5 Bft) 97,87 %
08.06.2019 07:56 13,9 C 13,3 C 12,8 C 69 % 1014,3 hPa 0,0 l/m 0 min 0 min 29 W/m 41,8 km/h (6 Bft) 100,00 %
08.06.2019 07:58 13,9 C 13,3 C 12,8 C 69 % 1014,4 hPa 0,0 l/m 0 min 0 min 32 W/m 45,1 km/h (6 Bft) 97,87 %
08.06.2019 08:00 13,9 C 13,3 C 12,8 C 69 % 1014,4 hPa 0,0 l/m 0 min 0 min 35 W/m 51,5 km/h (7 Bft) 97,83 %
08.06.2019 08:02 13,9 C 13,3 C 12,8 C 69 % 1014,4 hPa 0,0 l/m 0 min 0 min 36 W/m 22,5 km/h (4 Bft) 97,87 %
08.06.2019 08:04 13,9 C 13,3 C 12,8 C 69 % 1014,4 hPa 0,0 l/m 0 min 0 min 38 W/m 45,1 km/h (6 Bft) 97,87 %
08.06.2019 08:06 13,9 C 13,3 C 12,8 C 69 % 1014,4 hPa 0,0 l/m 0 min 0 min 38 W/m 45,1 km/h (6 Bft) 100,00 %
08.06.2019 08:08 13,9 C 13,3 C 12,8 C 69 % 1014,5 hPa 0,0 l/m 0 min 2 min 40 W/m 25,7 km/h (4 Bft) 100,00 %
08.06.2019 08:10 13,9 C 12,8 C 12,2 C 69 % 1014,5 hPa 0,0 l/m 0 min 2 min 39 W/m 32,2 km/h (5 Bft) 100,00 %
08.06.2019 08:12 13,9 C 12,8 C 12,2 C 70 % 1014,5 hPa 0,0 l/m 0 min 2 min 41 W/m 29,0 km/h (5 Bft) 100,00 %
08.06.2019 08:14 13,8 C 12,8 C 12,8 C 70 % 1014,5 hPa 0,0 l/m 0 min 2 min 46 W/m 38,6 km/h (5 Bft) 100,00 %
08.06.2019 08:16 13,8 C 12,8 C 12,8 C 70 % 1014,6 hPa 0,0 l/m 0 min 0 min 49 W/m 29,0 km/h (5 Bft) 100,00 %
08.06.2019 08:18 13,8 C 13,3 C 12,8 C 70 % 1014,5 hPa 0,0 l/m 0 min 0 min 62 W/m 29,0 km/h (5 Bft) 100,00 %
08.06.2019 08:20 13,8 C 13,3 C 12,8 C 70 % 1014,7 hPa 0,0 l/m 0 min 0 min 73 W/m 29,0 km/h (5 Bft) 97,87 %
08.06.2019 08:22 13,8 C 13,3 C 12,8 C 70 % 1014,6 hPa 0,0 l/m 0 min 0 min 82 W/m 48,3 km/h (6 Bft) 97,87 %
08.06.2019 08:24 13,8 C 13,3 C 12,8 C 70 % 1014,8 hPa 0,0 l/m 0 min 0 min 82 W/m 25,7 km/h (4 Bft) 100,00 %
08.06.2019 08:26 13,8 C 13,3 C 12,8 C 70 % 1014,6 hPa 0,0 l/m 0 min 0 min 82 W/m 29,0 km/h (5 Bft) 100,00 %
08.06.2019 08:28 13,8 C 13,3 C 12,8 C 70 % 1014,8 hPa 0,0 l/m 0 min 0 min 87 W/m 25,7 km/h (4 Bft) 100,00 %
08.06.2019 08:30 13,8 C 13,3 C 12,8 C 70 % 1014,8 hPa 0,0 l/m 0 min 0 min 97 W/m 35,4 km/h (5 Bft) 100,00 %
08.06.2019 08:32 13,8 C 13,3 C 12,8 C 70 % 1014,8 hPa 0,0 l/m 0 min 0 min 99 W/m 35,4 km/h (5 Bft) 100,00 %
08.06.2019 08:34 13,8 C 13,3 C 12,8 C 70 % 1014,9 hPa 0,0 l/m 0 min 0 min 95 W/m 35,4 km/h (5 Bft) 100,00 %
08.06.2019 08:36 13,8 C 13,9 C 12,8 C 70 % 1014,8 hPa 0,0 l/m 0 min 0 min 115 W/m 41,8 km/h (6 Bft) 100,00 %
08.06.2019 08:38 13,9 C 13,9 C 13,3 C 70 % 1015,0 hPa 0,0 l/m 0 min 0 min 128 W/m 41,8 km/h (6 Bft) 100,00 %
08.06.2019 08:40 13,9 C 13,9 C 13,3 C 70 % 1014,7 hPa 0,0 l/m 0 min 0 min 118 W/m 41,8 km/h (6 Bft) 100,00 %
08.06.2019 08:42 13,9 C 13,9 C 13,3 C 70 % 1014,9 hPa 0,0 l/m 0 min 0 min 122 W/m 41,8 km/h (6 Bft) 100,00 %
08.06.2019 08:44 13,9 C 13,9 C 13,3 C 70 % 1014,8 hPa 0,0 l/m 0 min 0 min 124 W/m 45,1 km/h (6 Bft) 100,00 %
08.06.2019 08:46 13,9 C 13,3 C 12,8 C 70 % 1015,1 hPa 0,0 l/m 0 min 0 min 123 W/m 45,1 km/h (6 Bft) 100,00 %
08.06.2019 08:48 13,9 C 13,9 C 12,8 C 70 % 1015,0 hPa 0,0 l/m 0 min 0 min 105 W/m 35,4 km/h (5 Bft) 100,00 %
08.06.2019 08:50 13,9 C 13,3 C 12,8 C 70 % 1015,1 hPa 0,0 l/m 0 min 0 min 123 W/m 45,1 km/h (6 Bft) 100,00 %
08.06.2019 08:52 13,9 C 13,9 C 13,3 C 70 % 1015,1 hPa 0,0 l/m 0 min 0 min 136 W/m 38,6 km/h (5 Bft) 100,00 %
08.06.2019 08:54 13,9 C 13,9 C 13,3 C 70 % 1015,0 hPa 0,0 l/m 0 min 0 min 117 W/m 35,4 km/h (5 Bft) 100,00 %
08.06.2019 08:56 14,0 C 13,9 C 13,3 C 70 % 1015,1 hPa 0,0 l/m 0 min 0 min 116 W/m 48,3 km/h (6 Bft) 100,00 %
08.06.2019 08:58 14,0 C 13,9 C 13,3 C 70 % 1015,2 hPa 0,0 l/m 0 min 0 min 154 W/m 35,4 km/h (5 Bft) 97,83 %
08.06.2019 09:00 14,0 C 13,9 C 13,3 C 71 % 1015,4 hPa 0,0 l/m 0 min 0 min 176 W/m 45,1 km/h (6 Bft) 100,00 %
08.06.2019 09:02 14,0 C 13,9 C 13,3 C 70 % 1015,3 hPa 0,0 l/m 0 min 0 min 166 W/m 51,5 km/h (7 Bft) 100,00 %
08.06.2019 09:04 14,0 C 13,9 C 13,3 C 70 % 1015,3 hPa 0,0 l/m 0 min 0 min 167 W/m 64,4 km/h (8 Bft) 100,00 %
08.06.2019 09:06 14,1 C 13,9 C 13,3 C 71 % 1015,2 hPa 0,0 l/m 0 min 0 min 154 W/m 32,2 km/h (5 Bft) 100,00 %
08.06.2019 09:08 14,1 C 13,9 C 13,3 C 71 % 1015,4 hPa 0,0 l/m 0 min 0 min 142 W/m 35,4 km/h (5 Bft) 100,00 %
08.06.2019 09:10 14,1 C 13,9 C 13,3 C 71 % 1015,3 hPa 0,0 l/m 0 min 0 min 143 W/m 35,4 km/h (5 Bft) 100,00 %
08.06.2019 09:12 14,1 C 13,3 C 12,8 C 71 % 1015,4 hPa 0,0 l/m 0 min 2 min 119 W/m 41,8 km/h (6 Bft) 97,87 %
08.06.2019 09:14 14,1 C 13,3 C 12,8 C 72 % 1015,5 hPa 0,0 l/m 0 min 2 min 119 W/m 45,1 km/h (6 Bft) 100,00 %
08.06.2019 09:16 14,0 C 13,9 C 12,8 C 72 % 1015,4 hPa 0,0 l/m 0 min 0 min 159 W/m 38,6 km/h (5 Bft) 97,87 %
08.06.2019 09:18 14,0 C 13,9 C 13,3 C 72 % 1015,5 hPa 0,0 l/m 0 min 0 min 158 W/m 29,0 km/h (5 Bft) 97,87 %
08.06.2019 09:20 14,1 C 13,9 C 13,3 C 72 % 1015,5 hPa 0,0 l/m 0 min 0 min 119 W/m 25,7 km/h (4 Bft) 97,87 %
08.06.2019 09:22 14,0 C 13,9 C 13,3 C 72 % 1015,5 hPa 0,0 l/m 0 min 0 min 126 W/m 29,0 km/h (5 Bft) 91,30 %
08.06.2019 09:24 14,0 C 13,9 C 13,3 C 72 % 1015,5 hPa 0,0 l/m 0 min 0 min 154 W/m 48,3 km/h (6 Bft) 95,74 %
08.06.2019 09:26 14,0 C 13,9 C 13,3 C 71 % 1015,6 hPa 0,0 l/m 0 min 0 min 144 W/m 45,1 km/h (6 Bft) 91,67 %
08.06.2019 09:28 14,0 C 13,9 C 13,3 C 72 % 1015,6 hPa 0,0 l/m 0 min 0 min 179 W/m 35,4 km/h (5 Bft) 93,62 %
08.06.2019 09:30 14,0 C 13,9 C 13,3 C 72 % 1015,6 hPa 0,0 l/m 0 min 0 min 178 W/m 41,8 km/h (6 Bft) 97,87 %
08.06.2019 09:32 14,1 C 13,9 C 13,3 C 71 % 1015,8 hPa 0,0 l/m 0 min 0 min 160 W/m 48,3 km/h (6 Bft) 93,62 %
08.06.2019 09:34 14,1 C 14,4 C 13,3 C 71 % 1015,6 hPa 0,0 l/m 0 min 0 min 190 W/m 41,8 km/h (6 Bft) 95,74 %
08.06.2019 09:36 14,2 C 14,4 C 13,9 C 71 % 1015,7 hPa 0,0 l/m 0 min 0 min 231 W/m 41,8 km/h (6 Bft) 95,74 %
08.06.2019 09:38 14,2 C 14,4 C 13,9 C 71 % 1015,6 hPa 0,0 l/m 0 min 0 min 254 W/m 32,2 km/h (5 Bft) 97,83 %
08.06.2019 09:40 14,2 C 14,4 C 13,9 C 71 % 1016,0 hPa 0,0 l/m 0 min 0 min 209 W/m 35,4 km/h (5 Bft) 93,62 %
08.06.2019 09:42 14,2 C 14,4 C 13,9 C 70 % 1015,7 hPa 0,0 l/m 0 min 0 min 208 W/m 51,5 km/h (7 Bft) 93,62 %
08.06.2019 09:44 14,2 C 14,4 C 13,9 C 70 % 1015,8 hPa 0,0 l/m 0 min 0 min 160 W/m 41,8 km/h (6 Bft) 93,62 %
08.06.2019 09:46 14,3 C 14,4 C 13,9 C 70 % 1015,8 hPa 0,0 l/m 0 min 0 min 150 W/m 29,0 km/h (5 Bft) 91,49 %
08.06.2019 09:48 14,3 C 14,4 C 13,9 C 70 % 1015,9 hPa 0,0 l/m 0 min 0 min 135 W/m 25,7 km/h (4 Bft) 93,62 %
08.06.2019 09:50 14,3 C 14,4 C 13,9 C 70 % 1016,0 hPa 0,0 l/m 0 min 0 min 127 W/m 32,2 km/h (5 Bft) 93,48 %
08.06.2019 09:52 14,4 C 14,4 C 13,9 C 70 % 1016,1 hPa 0,0 l/m 0 min 0 min 149 W/m 25,7 km/h (4 Bft) 91,49 %
08.06.2019 09:54 14,4 C 14,4 C 13,9 C 69 % 1016,0 hPa 0,0 l/m 0 min 0 min 154 W/m 38,6 km/h (5 Bft) 93,62 %
08.06.2019 09:56 14,4 C 14,4 C 13,9 C 69 % 1016,0 hPa 0,0 l/m 0 min 0 min 159 W/m 25,7 km/h (4 Bft) 91,49 %
08.06.2019 09:58 14,4 C 14,4 C 13,9 C 69 % 1015,9 hPa 0,0 l/m 0 min 0 min 180 W/m 38,6 km/h (5 Bft) 95,74 %
08.06.2019 10:00 14,5 C 15,0 C 14,4 C 69 % 1015,8 hPa 0,0 l/m 0 min 0 min 249 W/m 29,0 km/h (5 Bft) 91,49 %
08.06.2019 10:02 14,6 C 15,0 C 14,4 C 69 % 1015,9 hPa 0,0 l/m 0 min 0 min 231 W/m 35,4 km/h (5 Bft) 91,49 %
08.06.2019 10:04 14,6 C 15,0 C 13,9 C 69 % 1015,9 hPa 0,0 l/m 0 min 0 min 177 W/m 35,4 km/h (5 Bft) 93,48 %
08.06.2019 10:06 14,6 C 14,4 C 13,9 C 69 % 1016,1 hPa 0,0 l/m 0 min 0 min 152 W/m 61,2 km/h (7 Bft) 93,62 %
08.06.2019 10:08 14,6 C 14,4 C 13,9 C 68 % 1016,1 hPa 0,0 l/m 0 min 0 min 153 W/m 35,4 km/h (5 Bft) 91,49 %
08.06.2019 10:10 14,7 C 14,4 C 13,9 C 68 % 1016,1 hPa 0,0 l/m 0 min 0 min 156 W/m 51,5 km/h (7 Bft) 93,62 %
08.06.2019 10:12 14,7 C 14,4 C 13,9 C 68 % 1016,2 hPa 0,0 l/m 0 min 0 min 171 W/m 54,7 km/h (7 Bft) 95,74 %
08.06.2019 10:14 14,7 C 14,4 C 13,9 C 68 % 1016,1 hPa 0,0 l/m 0 min 0 min 177 W/m 35,4 km/h (5 Bft) 95,65 %
08.06.2019 10:16 14,7 C 15,0 C 13,9 C 68 % 1016,1 hPa 0,0 l/m 0 min 0 min 176 W/m 45,1 km/h (6 Bft) 95,74 %
08.06.2019 10:18 14,7 C 15,0 C 14,4 C 68 % 1016,4 hPa 0,0 l/m 0 min 0 min 206 W/m 35,4 km/h (5 Bft) 95,74 %
08.06.2019 10:20 14,8 C 15,0 C 14,4 C 68 % 1016,1 hPa 0,0 l/m 0 min 0 min 245 W/m 25,7 km/h (4 Bft) 95,74 %
08.06.2019 10:22 14,8 C 15,0 C 14,4 C 68 % 1016,0 hPa 0,0 l/m 0 min 0 min 229 W/m 32,2 km/h (5 Bft) 95,74 %
08.06.2019 10:24 14,8 C 15,6 C 14,4 C 68 % 1016,0 hPa 0,0 l/m 0 min 0 min 255 W/m 38,6 km/h (5 Bft) 95,74 %
08.06.2019 10:26 14,9 C 15,0 C 14,4 C 68 % 1016,2 hPa 0,0 l/m 0 min 0 min 186 W/m 41,8 km/h (6 Bft) 95,65 %
08.06.2019 10:28 14,9 C 15,6 C 14,4 C 67 % 1016,2 hPa 0,0 l/m 0 min 0 min 189 W/m 51,5 km/h (7 Bft) 97,87 %
08.06.2019 10:30 14,9 C 15,0 C 14,4 C 68 % 1016,4 hPa 0,0 l/m 0 min 0 min 169 W/m 35,4 km/h (5 Bft) 97,87 %
08.06.2019 10:32 14,9 C 15,0 C 14,4 C 68 % 1016,3 hPa 0,0 l/m 0 min 0 min 151 W/m 35,4 km/h (5 Bft) 97,87 %
08.06.2019 10:34 14,9 C 14,4 C 14,4 C 67 % 1016,4 hPa 0,0 l/m 0 min 0 min 124 W/m 32,2 km/h (5 Bft) 97,87 %
08.06.2019 10:36 14,9 C 14,4 C 13,9 C 67 % 1016,2 hPa 0,0 l/m 0 min 0 min 107 W/m 45,1 km/h (6 Bft) 100,00 %
08.06.2019 10:38 14,9 C 14,4 C 13,9 C 67 % 1016,3 hPa 0,0 l/m 0 min 0 min 118 W/m 32,2 km/h (5 Bft) 100,00 %
08.06.2019 10:40 14,9 C 14,4 C 13,9 C 67 % 1016,3 hPa 0,0 l/m 0 min 0 min 114 W/m 25,7 km/h (4 Bft) 100,00 %
08.06.2019 10:42 14,9 C 14,4 C 13,9 C 67 % 1016,4 hPa 0,0 l/m 0 min 0 min 119 W/m 48,3 km/h (6 Bft) 95,74 %
08.06.2019 10:44 14,9 C 14,4 C 13,9 C 67 % 1016,3 hPa 0,0 l/m 0 min 0 min 140 W/m 48,3 km/h (6 Bft) 100,00 %
08.06.2019 10:46 14,9 C 14,4 C 13,9 C 67 % 1016,4 hPa 0,0 l/m 0 min 0 min 142 W/m 35,4 km/h (5 Bft) 100,00 %
08.06.2019 10:48 14,9 C 15,0 C 13,9 C 67 % 1016,3 hPa 0,0 l/m 0 min 0 min 136 W/m 29,0 km/h (5 Bft) 100,00 %
08.06.2019 10:50 14,9 C 15,0 C 14,4 C 67 % 1016,3 hPa 0,0 l/m 0 min 0 min 182 W/m 35,4 km/h (5 Bft) 100,00 %
08.06.2019 10:52 15,0 C 15,0 C 14,4 C 67 % 1016,4 hPa 0,0 l/m 0 min 0 min 180 W/m 29,0 km/h (5 Bft) 100,00 %
08.06.2019 10:54 15,0 C 15,0 C 14,4 C 67 % 1016,3 hPa 0,0 l/m 0 min 0 min 187 W/m 48,3 km/h (6 Bft) 100,00 %
08.06.2019 10:56 15,1 C 15,0 C 14,4 C 67 % 1016,5 hPa 0,0 l/m 0 min 0 min 138 W/m 38,6 km/h (5 Bft) 100,00 %
08.06.2019 10:58 15,1 C 15,0 C 14,4 C 67 % 1016,5 hPa 0,0 l/m 0 min 0 min 115 W/m 29,0 km/h (5 Bft) 100,00 %
08.06.2019 11:00 15,1 C 15,0 C 14,4 C 66 % 1016,6 hPa 0,0 l/m 0 min 0 min 116 W/m 45,1 km/h (6 Bft) 100,00 %
08.06.2019 11:02 15,1 C 15,0 C 14,4 C 67 % 1016,6 hPa 0,0 l/m 0 min 0 min 126 W/m 32,2 km/h (5 Bft) 95,74 %
08.06.2019 11:04 15,2 C 15,0 C 14,4 C 67 % 1016,6 hPa 0,0 l/m 0 min 0 min 121 W/m 25,7 km/h (4 Bft) 100,00 %
08.06.2019 11:06 15,2 C 15,0 C 14,4 C 67 % 1016,7 hPa 0,0 l/m 0 min 0 min 160 W/m 38,6 km/h (5 Bft) 100,00 %
08.06.2019 11:10 15,2 C 15,6 C 15,0 C 67 % 1016,7 hPa 0,0 l/m 0 min 0 min 219 W/m 38,6 km/h (5 Bft) 100,00 %
08.06.2019 11:18 15,3 C 15,6 C 15,0 C 67 % 1016,8 hPa 0,0 l/m 0 min 0 min 245 W/m 57,9 km/h (7 Bft) 97,56 %
08.06.2019 11:20 15,4 C 15,6 C 15,0 C 66 % 1017,0 hPa 0,0 l/m 0 min 0 min 201 W/m 25,7 km/h (4 Bft) 100,00 %
08.06.2019 11:22 15,4 C 15,6 C 15,0 C 66 % 1016,8 hPa 0,0 l/m 0 min 0 min 193 W/m 35,4 km/h (5 Bft) 100,00 %
08.06.2019 11:24 15,4 C 15,6 C 15,0 C 67 % 1017,3 hPa 0,0 l/m 0 min 0 min 163 W/m 51,5 km/h (7 Bft) 100,00 %
08.06.2019 11:26 15,4 C 15,6 C 15,0 C 66 % 1017,2 hPa 0,0 l/m 0 min 0 min 198 W/m 35,4 km/h (5 Bft) 100,00 %
08.06.2019 11:28 15,5 C 15,6 C 15,0 C 66 % 1017,1 hPa 0,0 l/m 0 min 0 min 201 W/m 38,6 km/h (5 Bft) 100,00 %
08.06.2019 11:30 15,5 C 15,6 C 15,0 C 66 % 1017,0 hPa 0,0 l/m 0 min 0 min 159 W/m 38,6 km/h (5 Bft) 100,00 %
08.06.2019 11:32 15,5 C 15,6 C 15,0 C 67 % 1017,3 hPa 0,0 l/m 0 min 0 min 176 W/m 29,0 km/h (5 Bft) 100,00 %
08.06.2019 11:34 15,5 C 15,6 C 15,0 C 67 % 1017,3 hPa 0,0 l/m 0 min 0 min 228 W/m 35,4 km/h (5 Bft) 97,87 %
08.06.2019 11:36 15,5 C 15,6 C 15,0 C 66 % 1017,4 hPa 0,0 l/m 0 min 0 min 229 W/m 45,1 km/h (6 Bft) 100,00 %
08.06.2019 11:38 15,5 C 16,1 C 15,0 C 67 % 1017,4 hPa 0,0 l/m 0 min 0 min 286 W/m 38,6 km/h (5 Bft) 100,00 %
08.06.2019 11:40 15,5 C 16,1 C 15,0 C 67 % 1017,3 hPa 0,0 l/m 0 min 0 min 274 W/m 41,8 km/h (6 Bft) 100,00 %
08.06.2019 11:42 15,6 C 16,1 C 15,6 C 67 % 1017,3 hPa 0,0 l/m 0 min 0 min 246 W/m 29,0 km/h (5 Bft) 100,00 %
08.06.2019 11:44 15,6 C 16,1 C 15,0 C 66 % 1017,4 hPa 0,0 l/m 0 min 0 min 231 W/m 35,4 km/h (5 Bft) 100,00 %
08.06.2019 11:46 15,6 C 16,1 C 15,0 C 67 % 1017,3 hPa 0,0 l/m 0 min 0 min 241 W/m 35,4 km/h (5 Bft) 97,87 %
08.06.2019 11:48 15,7 C 16,1 C 15,0 C 66 % 1017,5 hPa 0,0 l/m 0 min 0 min 250 W/m 29,0 km/h (5 Bft) 100,00 %
08.06.2019 11:50 15,7 C 16,1 C 15,6 C 67 % 1017,4 hPa 0,0 l/m 0 min 0 min 276 W/m 29,0 km/h (5 Bft) 100,00 %
08.06.2019 11:52 15,7 C 16,1 C 15,6 C 67 % 1017,5 hPa 0,0 l/m 0 min 0 min 276 W/m 54,7 km/h (7 Bft) 100,00 %
08.06.2019 11:54 15,7 C 16,1 C 15,6 C 66 % 1017,5 hPa 0,0 l/m 0 min 0 min 257 W/m 32,2 km/h (5 Bft) 100,00 %
08.06.2019 11:56 15,8 C 16,1 C 15,6 C 66 % 1017,6 hPa 0,0 l/m 0 min 0 min 242 W/m 38,6 km/h (5 Bft) 97,87 %
08.06.2019 11:58 15,8 C 16,1 C 15,6 C 66 % 1017,4 hPa 0,0 l/m 0 min 0 min 235 W/m 41,8 km/h (6 Bft) 100,00 %
08.06.2019 12:00 15,8 C 16,1 C 15,0 C 66 % 1017,7 hPa 0,0 l/m 0 min 0 min 203 W/m 61,2 km/h (7 Bft) 100,00 %
08.06.2019 12:02 15,8 C 16,1 C 15,0 C 66 % 1017,5 hPa 0,0 l/m 0 min 0 min 223 W/m 35,4 km/h (5 Bft) 97,83 %
08.06.2019 12:04 15,8 C 16,1 C 15,0 C 66 % 1017,6 hPa 0,0 l/m 0 min 0 min 250 W/m 41,8 km/h (6 Bft) 100,00 %
08.06.2019 12:08 15,8 C 16,1 C 15,6 C 66 % 1017,9 hPa 0,0 l/m 0 min 0 min 231 W/m 41,8 km/h (6 Bft) 98,94 %
08.06.2019 12:10 15,8 C 15,6 C 15,0 C 66 % 1017,7 hPa 0,0 l/m 0 min 0 min 210 W/m 61,2 km/h (7 Bft) 100,00 %
08.06.2019 12:12 15,8 C 16,1 C 15,0 C 66 % 1017,6 hPa 0,0 l/m 0 min 0 min 192 W/m 25,7 km/h (4 Bft) 100,00 %
08.06.2019 12:14 15,8 C 16,1 C 15,0 C 67 % 1017,6 hPa 0,0 l/m 0 min 0 min 214 W/m 22,5 km/h (4 Bft) 100,00 %
08.06.2019 12:16 15,8 C 16,7 C 15,6 C 67 % 1017,7 hPa 0,0 l/m 0 min 0 min 291 W/m 25,7 km/h (4 Bft) 97,87 %
08.06.2019 12:18 15,8 C 16,7 C 15,6 C 66 % 1017,7 hPa 0,0 l/m 0 min 0 min 345 W/m 48,3 km/h (6 Bft) 97,87 %
08.06.2019 12:20 15,9 C 16,7 C 15,6 C 65 % 1017,8 hPa 0,0 l/m 0 min 0 min 335 W/m 48,3 km/h (6 Bft) 95,74 %
08.06.2019 12:22 15,9 C 16,7 C 15,6 C 66 % 1017,8 hPa 0,0 l/m 0 min 0 min 259 W/m 29,0 km/h (5 Bft) 97,87 %
08.06.2019 12:24 16,0 C 16,1 C 15,6 C 66 % 1017,7 hPa 0,0 l/m 0 min 0 min 164 W/m 35,4 km/h (5 Bft) 97,87 %
08.06.2019 12:26 16,0 C 16,1 C 15,6 C 65 % 1017,9 hPa 0,0 l/m 0 min 0 min 143 W/m 16,1 km/h (3 Bft) 97,83 %
08.06.2019 12:28 16,0 C 16,1 C 15,6 C 66 % 1017,7 hPa 0,0 l/m 0 min 0 min 184 W/m 22,5 km/h (4 Bft) 97,87 %
08.06.2019 12:30 16,1 C 16,7 C 15,6 C 66 % 1017,7 hPa 0,0 l/m 0 min 0 min 250 W/m 19,3 km/h (3 Bft) 93,62 %
08.06.2019 12:32 16,1 C 17,2 C 16,1 C 67 % 1017,8 hPa 0,0 l/m 0 min 0 min 315 W/m 22,5 km/h (4 Bft) 95,74 %
08.06.2019 12:34 16,2 C 17,2 C 16,7 C 66 % 1017,7 hPa 0,0 l/m 0 min 0 min 335 W/m 19,3 km/h (3 Bft) 95,74 %
08.06.2019 12:36 16,2 C 17,2 C 16,1 C 66 % 1017,9 hPa 0,0 l/m 0 min 0 min 276 W/m 25,7 km/h (4 Bft) 93,48 %
08.06.2019 12:38 16,3 C 17,2 C 16,7 C 65 % 1017,8 hPa 0,0 l/m 0 min 0 min 284 W/m 29,0 km/h (5 Bft) 93,62 %
08.06.2019 12:40 16,3 C 16,7 C 16,7 C 66 % 1017,9 hPa 0,0 l/m 0 min 0 min 246 W/m 25,7 km/h (4 Bft) 95,74 %
08.06.2019 12:42 16,3 C 16,7 C 16,1 C 65 % 1017,9 hPa 0,0 l/m 0 min 0 min 192 W/m 41,8 km/h (6 Bft) 95,74 %
08.06.2019 12:44 16,4 C 16,1 C 15,6 C 65 % 1017,9 hPa 0,0 l/m 0 min 0 min 149 W/m 35,4 km/h (5 Bft) 95,74 %
08.06.2019 12:46 16,4 C 16,1 C 16,1 C 66 % 1017,9 hPa 0,0 l/m 0 min 0 min 176 W/m 19,3 km/h (3 Bft) 91,49 %
08.06.2019 12:48 16,3 C 16,1 C 16,1 C 65 % 1018,0 hPa 0,0 l/m 0 min 0 min 176 W/m 35,4 km/h (5 Bft) 93,48 %
08.06.2019 12:50 16,4 C 16,1 C 15,6 C 65 % 1018,0 hPa 0,0 l/m 0 min 0 min 181 W/m 35,4 km/h (5 Bft) 95,74 %
08.06.2019 12:52 16,3 C 16,1 C 16,1 C 65 % 1018,0 hPa 0,0 l/m 0 min 0 min 217 W/m 32,2 km/h (5 Bft) 95,74 %
08.06.2019 12:54 16,3 C 16,7 C 16,1 C 65 % 1018,0 hPa 0,0 l/m 0 min 0 min 170 W/m 35,4 km/h (5 Bft) 93,62 %
08.06.2019 12:56 16,3 C 16,1 C 15,6 C 65 % 1018,0 hPa 0,0 l/m 0 min 0 min 150 W/m 29,0 km/h (5 Bft) 91,49 %
08.06.2019 12:58 16,3 C 16,1 C 15,6 C 65 % 1018,2 hPa 0,0 l/m 0 min 0 min 160 W/m 64,4 km/h (8 Bft) 91,49 %
08.06.2019 13:00 16,3 C 16,1 C 15,6 C 64 % 1018,2 hPa 0,0 l/m 0 min 0 min 170 W/m 61,2 km/h (7 Bft) 95,65 %
08.06.2019 13:02 16,3 C 16,1 C 15,6 C 64 % 1018,1 hPa 0,0 l/m 0 min 0 min 140 W/m 35,4 km/h (5 Bft) 95,74 %
08.06.2019 13:04 16,3 C 15,6 C 15,6 C 64 % 1018,1 hPa 0,0 l/m 0 min 0 min 123 W/m 25,7 km/h (4 Bft) 95,74 %
08.06.2019 13:06 16,3 C 15,6 C 15,6 C 65 % 1018,2 hPa 0,0 l/m 0 min 0 min 89 W/m 22,5 km/h (4 Bft) 95,74 %
08.06.2019 13:08 16,3 C 15,6 C 15,6 C 65 % 1018,2 hPa 0,0 l/m 0 min 0 min 91 W/m 25,7 km/h (4 Bft) 93,62 %
08.06.2019 13:10 16,3 C 15,6 C 15,6 C 65 % 1018,4 hPa 0,0 l/m 0 min 0 min 81 W/m 29,0 km/h (5 Bft) 95,74 %
08.06.2019 13:12 16,3 C 15,6 C 15,6 C 65 % 1018,2 hPa 0,0 l/m 0 min 0 min 70 W/m 25,7 km/h (4 Bft) 95,65 %
08.06.2019 13:14 16,2 C 15,6 C 15,0 C 65 % 1018,3 hPa 0,0 l/m 0 min 0 min 62 W/m 35,4 km/h (5 Bft) 95,74 %
08.06.2019 13:16 16,2 C 15,6 C 15,0 C 65 % 1018,4 hPa 0,0 l/m 0 min 0 min 57 W/m 25,7 km/h (4 Bft) 95,74 %
08.06.2019 13:18 16,2 C 15,6 C 15,0 C 65 % 1018,3 hPa 0,0 l/m 0 min 0 min 64 W/m 25,7 km/h (4 Bft) 95,74 %
08.06.2019 13:20 16,1 C 15,6 C 15,0 C 65 % 1018,4 hPa 0,0 l/m 0 min 0 min 66 W/m 29,0 km/h (5 Bft) 95,74 %
08.06.2019 13:22 16,1 C 15,6 C 15,0 C 64 % 1018,4 hPa 0,0 l/m 0 min 0 min 64 W/m 54,7 km/h (7 Bft) 95,74 %
08.06.2019 13:00 16,3 C 16,1 C 15,6 C 64 % 1018,2 hPa 0,0 l/m 0 min 0 min 161 W/m 64,4 km/h (8 Bft) 95,61 %
08.06.2019 13:05 16,3 C 15,6 C 15,6 C 65 % 1018,2 hPa 0,0 l/m 0 min 0 min 119 W/m 35,4 km/h (5 Bft) 99,12 %
08.06.2019 13:10 16,3 C 15,6 C 15,6 C 65 % 1018,4 hPa 0,0 l/m 0 min 0 min 85 W/m 29,0 km/h (5 Bft) 97,37 %
08.06.2019 13:15 16,2 C 15,6 C 15,0 C 65 % 1018,5 hPa 0,0 l/m 0 min 0 min 62 W/m 35,4 km/h (5 Bft) 97,37 %
08.06.2019 13:20 16,2 C 15,6 C 15,0 C 65 % 1018,4 hPa 0,0 l/m 0 min 0 min 63 W/m 38,6 km/h (5 Bft) 98,25 %
08.06.2019 13:25 16,1 C 15,6 C 15,0 C 64 % 1018,6 hPa 0,0 l/m 0 min 0 min 76 W/m 54,7 km/h (7 Bft) 100,00 %
08.06.2019 13:32 16,1 C 16,1 C 15,6 C 64 % 1018,6 hPa 0,0 l/m 0 min 0 min 156 W/m 38,6 km/h (5 Bft) 100,00 %
08.06.2019 13:34 16,1 C 16,1 C 15,6 C 64 % 1018,6 hPa 0,0 l/m 0 min 0 min 212 W/m 38,6 km/h (5 Bft) 100,00 %
08.06.2019 13:36 16,2 C 16,7 C 15,6 C 64 % 1018,5 hPa 0,0 l/m 0 min 0 min 279 W/m 32,2 km/h (5 Bft) 97,22 %
08.06.2019 13:41 16,3 C 16,7 C 15,6 C 64 % 1018,7 hPa 0,0 l/m 0 min 0 min 246 W/m 32,2 km/h (5 Bft) 100,00 %
08.06.2019 13:42 16,4 C 16,7 C 15,6 C 64 % 1018,7 hPa 0,0 l/m 0 min 0 min 168 W/m 22,5 km/h (4 Bft) 100,00 %
08.06.2019 13:44 16,4 C 16,7 C 15,6 C 64 % 1018,6 hPa 0,0 l/m 0 min 0 min 157 W/m 32,2 km/h (5 Bft) 100,00 %
08.06.2019 13:46 16,5 C 16,7 C 15,6 C 64 % 1018,7 hPa 0,0 l/m 0 min 0 min 180 W/m 41,8 km/h (6 Bft) 100,00 %
08.06.2019 13:48 16,5 C 16,7 C 16,1 C 64 % 1018,9 hPa 0,0 l/m 0 min 0 min 182 W/m 35,4 km/h (5 Bft) 100,00 %
08.06.2019 13:50 16,6 C 16,7 C 16,1 C 63 % 1018,8 hPa 0,0 l/m 0 min 0 min 152 W/m 32,2 km/h (5 Bft) 97,87 %
08.06.2019 13:52 16,6 C 16,1 C 15,6 C 63 % 1018,8 hPa 0,0 l/m 0 min 0 min 121 W/m 32,2 km/h (5 Bft) 100,00 %
08.06.2019 13:54 16,6 C 16,1 C 15,6 C 63 % 1018,8 hPa 0,0 l/m 0 min 0 min 132 W/m 32,2 km/h (5 Bft) 100,00 %
08.06.2019 13:56 16,6 C 16,1 C 15,6 C 63 % 1019,1 hPa 0,0 l/m 0 min 0 min 124 W/m 41,8 km/h (6 Bft) 100,00 %
08.06.2019 13:58 16,6 C 16,1 C 15,6 C 64 % 1018,9 hPa 0,0 l/m 0 min 0 min 160 W/m 41,8 km/h (6 Bft) 100,00 %
08.06.2019 14:00 16,6 C 16,7 C 16,1 C 64 % 1019,0 hPa 0,0 l/m 0 min 0 min 246 W/m 35,4 km/h (5 Bft) 97,87 %
08.06.2019 14:02 16,6 C 16,7 C 16,1 C 64 % 1019,0 hPa 0,0 l/m 0 min 0 min 258 W/m 41,8 km/h (6 Bft) 100,00 %
08.06.2019 14:04 16,6 C 16,7 C 16,1 C 64 % 1018,8 hPa 0,0 l/m 0 min 0 min 274 W/m 48,3 km/h (6 Bft) 97,87 %
08.06.2019 14:06 16,6 C 17,2 C 16,7 C 64 % 1018,8 hPa 0,0 l/m 0 min 0 min 272 W/m 25,7 km/h (4 Bft) 100,00 %
08.06.2019 14:08 16,7 C 17,2 C 16,7 C 64 % 1019,1 hPa 0,0 l/m 0 min 0 min 308 W/m 32,2 km/h (5 Bft) 97,83 %
08.06.2019 14:10 16,7 C 17,8 C 16,7 C 64 % 1019,0 hPa 0,0 l/m 0 min 0 min 344 W/m 22,5 km/h (4 Bft) 100,00 %
08.06.2019 14:12 16,8 C 17,8 C 17,2 C 64 % 1018,9 hPa 0,0 l/m 0 min 0 min 353 W/m 25,7 km/h (4 Bft) 100,00 %
08.06.2019 14:14 16,9 C 18,3 C 17,2 C 64 % 1018,9 hPa 0,0 l/m 0 min 0 min 406 W/m 25,7 km/h (4 Bft) 100,00 %
08.06.2019 14:16 16,9 C 18,9 C 18,3 C 64 % 1019,0 hPa 0,0 l/m 0 min 0 min 416 W/m 25,7 km/h (4 Bft) 100,00 %
08.06.2019 14:18 17,1 C 19,4 C 18,9 C 63 % 1019,0 hPa 0,0 l/m 2 min 0 min 489 W/m 25,7 km/h (4 Bft) 100,00 %
08.06.2019 14:20 17,2 C 19,4 C 18,9 C 63 % 1018,9 hPa 0,0 l/m 2 min 0 min 468 W/m 25,7 km/h (4 Bft) 100,00 %
08.06.2019 14:22 17,3 C 18,9 C 18,3 C 63 % 1019,0 hPa 0,0 l/m 0 min 0 min 342 W/m 29,0 km/h (5 Bft) 97,87 %
08.06.2019 14:24 17,4 C 18,3 C 17,8 C 62 % 1018,9 hPa 0,0 l/m 0 min 0 min 338 W/m 35,4 km/h (5 Bft) 97,87 %
08.06.2019 14:26 17,4 C 18,3 C 17,8 C 63 % 1018,9 hPa 0,0 l/m 0 min 0 min 312 W/m 35,4 km/h (5 Bft) 97,87 %
08.06.2019 14:28 17,5 C 18,3 C 17,2 C 62 % 1019,0 hPa 0,0 l/m 0 min 0 min 309 W/m 45,1 km/h (6 Bft) 100,00 %
08.06.2019 14:30 17,6 C 18,3 C 17,2 C 62 % 1019,1 hPa 0,0 l/m 0 min 0 min 389 W/m 41,8 km/h (6 Bft) 100,00 %
08.06.2019 14:32 17,6 C 18,9 C 17,8 C 62 % 1019,1 hPa 0,0 l/m 0 min 0 min 445 W/m 45,1 km/h (6 Bft) 100,00 %
08.06.2019 14:34 17,7 C 18,9 C 17,8 C 62 % 1019,1 hPa 0,0 l/m 2 min 0 min 460 W/m 32,2 km/h (5 Bft) 100,00 %
08.06.2019 14:36 17,7 C 18,9 C 17,8 C 62 % 1019,1 hPa 0,0 l/m 0 min 0 min 390 W/m 35,4 km/h (5 Bft) 97,87 %
08.06.2019 14:38 17,8 C 18,3 C 17,8 C 62 % 1019,2 hPa 0,0 l/m 0 min 0 min 383 W/m 45,1 km/h (6 Bft) 100,00 %
08.06.2019 14:40 17,8 C 17,8 C 17,2 C 61 % 1019,2 hPa 0,0 l/m 0 min 0 min 303 W/m 38,6 km/h (5 Bft) 97,87 %
08.06.2019 14:42 17,8 C 17,8 C 17,2 C 61 % 1019,1 hPa 0,0 l/m 0 min 0 min 349 W/m 48,3 km/h (6 Bft) 100,00 %
08.06.2019 14:44 17,8 C 18,9 C 17,8 C 61 % 1019,1 hPa 0,0 l/m 2 min 0 min 462 W/m 29,0 km/h (5 Bft) 100,00 %
08.06.2019 14:46 17,8 C 18,9 C 17,8 C 61 % 1019,1 hPa 0,0 l/m 0 min 0 min 402 W/m 29,0 km/h (5 Bft) 100,00 %
08.06.2019 14:48 17,8 C 18,3 C 17,8 C 60 % 1019,3 hPa 0,0 l/m 0 min 0 min 367 W/m 45,1 km/h (6 Bft) 97,87 %
08.06.2019 14:50 17,8 C 18,3 C 17,8 C 61 % 1019,1 hPa 0,0 l/m 0 min 0 min 345 W/m 32,2 km/h (5 Bft) 95,74 %
08.06.2019 14:52 17,8 C 18,3 C 17,2 C 60 % 1019,2 hPa 0,0 l/m 0 min 0 min 354 W/m 38,6 km/h (5 Bft) 97,87 %
08.06.2019 14:54 17,8 C 18,3 C 17,2 C 59 % 1019,1 hPa 0,0 l/m 0 min 0 min 397 W/m 35,4 km/h (5 Bft) 97,87 %
08.06.2019 14:56 17,8 C 18,9 C 17,8 C 59 % 1019,1 hPa 0,0 l/m 2 min 0 min 511 W/m 32,2 km/h (5 Bft) 97,83 %
08.06.2019 14:58 17,8 C 18,9 C 18,3 C 59 % 1019,2 hPa 0,0 l/m 2 min 0 min 530 W/m 32,2 km/h (5 Bft) 97,87 %
08.06.2019 15:00 17,9 C 18,9 C 18,3 C 61 % 1018,9 hPa 0,0 l/m 2 min 0 min 464 W/m 19,3 km/h (3 Bft) 97,87 %
08.06.2019 15:02 17,9 C 18,9 C 18,3 C 61 % 1019,1 hPa 0,0 l/m 0 min 0 min 399 W/m 25,7 km/h (4 Bft) 97,87 %
08.06.2019 15:04 17,9 C 18,9 C 18,3 C 61 % 1019,1 hPa 0,0 l/m 0 min 0 min 410 W/m 22,5 km/h (4 Bft) 97,87 %
08.06.2019 15:06 18,0 C 19,4 C 18,3 C 61 % 1019,0 hPa 0,0 l/m 0 min 0 min 419 W/m 29,0 km/h (5 Bft) 95,74 %
08.06.2019 15:08 18,1 C 18,9 C 18,3 C 60 % 1019,1 hPa 0,0 l/m 2 min 0 min 447 W/m 51,5 km/h (7 Bft) 97,96 %
08.06.2019 15:10 18,1 C 19,4 C 18,3 C 60 % 1019,0 hPa 0,0 l/m 2 min 0 min 446 W/m 32,2 km/h (5 Bft) 97,87 %
08.06.2019 15:12 18,2 C 19,4 C 18,3 C 59 % 1019,0 hPa 0,0 l/m 2 min 0 min 475 W/m 38,6 km/h (5 Bft) 97,87 %
08.06.2019 15:16 18,3 C 20,6 C 18,9 C 61 % 1019,2 hPa 0,0 l/m 4 min 0 min 817 W/m 19,3 km/h (3 Bft) 98,82 %
08.06.2019 15:18 18,5 C 21,1 C 19,4 C 60 % 1019,0 hPa 0,0 l/m 2 min 0 min 870 W/m 25,7 km/h (4 Bft) 98,31 %
08.06.2019 15:20 18,6 C 21,1 C 19,4 C 59 % 1019,1 hPa 0,0 l/m 2 min 0 min 606 W/m 29,0 km/h (5 Bft) 97,87 %
08.06.2019 15:22 18,7 C 21,1 C 19,4 C 57 % 1019,4 hPa 0,0 l/m 2 min 0 min 1124 W/m 48,3 km/h (6 Bft) 97,87 %
08.06.2019 15:24 18,8 C 20,6 C 18,9 C 56 % 1019,2 hPa 0,0 l/m 2 min 0 min 1107 W/m 35,4 km/h (5 Bft) 94,34 %
08.06.2019 15:26 18,9 C 20,6 C 18,9 C 56 % 1019,3 hPa 0,0 l/m 2 min 0 min 568 W/m 32,2 km/h (5 Bft) 97,87 %
08.06.2019 15:28 19,0 C 20,6 C 18,9 C 56 % 1019,2 hPa 0,0 l/m 2 min 0 min 922 W/m 29,0 km/h (5 Bft) 97,87 %
08.06.2019 15:30 19,1 C 21,7 C 19,4 C 57 % 1019,1 hPa 0,0 l/m 2 min 0 min 986 W/m 32,2 km/h (5 Bft) 97,96 %
08.06.2019 15:32 19,2 C 21,1 C 18,9 C 56 % 1019,1 hPa 0,0 l/m 2 min 0 min 977 W/m 35,4 km/h (5 Bft) 98,00 %
08.06.2019 15:34 19,2 C 20,6 C 19,4 C 56 % 1019,1 hPa 0,0 l/m 2 min 0 min 979 W/m 35,4 km/h (5 Bft) 100,00 %
08.06.2019 15:36 19,3 C 21,1 C 19,4 C 57 % 1019,1 hPa 0,0 l/m 2 min 0 min 1072 W/m 29,0 km/h (5 Bft) 100,00 %
08.06.2019 15:38 19,3 C 20,6 C 19,4 C 57 % 1019,2 hPa 0,0 l/m 2 min 0 min 824 W/m 25,7 km/h (4 Bft) 97,83 %
08.06.2019 15:40 19,3 C 20,0 C 18,9 C 56 % 1019,2 hPa 0,0 l/m 0 min 0 min 270 W/m 25,7 km/h (4 Bft) 95,74 %
08.06.2019 15:42 19,3 C 20,0 C 18,9 C 56 % 1019,0 hPa 0,0 l/m 0 min 0 min 299 W/m 16,1 km/h (3 Bft) 97,87 %
08.06.2019 15:44 19,3 C 19,4 C 18,9 C 57 % 1019,1 hPa 0,0 l/m 0 min 0 min 317 W/m 22,5 km/h (4 Bft) 97,87 %
08.06.2019 15:46 19,3 C 19,4 C 18,9 C 58 % 1019,2 hPa 0,0 l/m 0 min 0 min 262 W/m 16,1 km/h (3 Bft) 97,87 %
08.06.2019 15:48 19,3 C 18,9 C 18,9 C 57 % 1019,2 hPa 0,0 l/m 0 min 0 min 266 W/m 22,5 km/h (4 Bft) 97,87 %
08.06.2019 15:50 19,3 C 18,9 C 18,3 C 57 % 1019,3 hPa 0,0 l/m 0 min 0 min 220 W/m 16,1 km/h (3 Bft) 97,83 %
08.06.2019 15:52 19,2 C 18,3 C 18,3 C 57 % 1019,4 hPa 0,0 l/m 0 min 0 min 177 W/m 29,0 km/h (5 Bft) 97,87 %
08.06.2019 15:54 19,1 C 17,8 C 17,8 C 56 % 1019,4 hPa 0,0 l/m 0 min 0 min 143 W/m 29,0 km/h (5 Bft) 97,87 %
08.06.2019 15:56 18,9 C 17,8 C 17,2 C 56 % 1019,4 hPa 0,0 l/m 0 min 0 min 132 W/m 35,4 km/h (5 Bft) 97,30 %
08.06.2019 15:58 18,8 C 17,8 C 17,2 C 57 % 1019,4 hPa 0,0 l/m 0 min 0 min 142 W/m 16,1 km/h (3 Bft) 97,87 %
08.06.2019 16:00 18,7 C 17,2 C 16,7 C 58 % 1019,5 hPa 0,0 l/m 0 min 0 min 205 W/m 25,7 km/h (4 Bft) 95,74 %
08.06.2019 16:02 18,7 C 13,3 C 13,9 C 62 % 1019,4 hPa 0,0 l/m 0 min 2 min 250 W/m 29,0 km/h (5 Bft) 95,74 %
08.06.2019 16:04 18,5 C 13,9 C 13,9 C 63 % 1019,5 hPa 0,0 l/m 0 min 2 min 388 W/m 32,2 km/h (5 Bft) 95,65 %
08.06.2019 16:06 18,3 C 14,4 C 13,9 C 63 % 1019,5 hPa 0,0 l/m 0 min 2 min 356 W/m 32,2 km/h (5 Bft) 98,15 %
08.06.2019 16:08 18,2 C 15,6 C 15,0 C 65 % 1019,7 hPa 0,0 l/m 0 min 2 min 364 W/m 32,2 km/h (5 Bft) 95,74 %
08.06.2019 16:10 18,2 C 16,7 C 16,1 C 65 % 1019,4 hPa 0,0 l/m 2 min 0 min 898 W/m 29,0 km/h (5 Bft) 91,49 %
08.06.2019 16:12 18,2 C 16,7 C 16,7 C 66 % 1019,4 hPa 0,0 l/m 2 min 0 min 875 W/m 22,5 km/h (4 Bft) 97,87 %
08.06.2019 16:14 18,2 C 17,2 C 16,7 C 65 % 1019,4 hPa 0,0 l/m 2 min 0 min 876 W/m 22,5 km/h (4 Bft) 97,87 %
08.06.2019 16:16 18,2 C 17,8 C 17,2 C 64 % 1019,4 hPa 0,0 l/m 2 min 0 min 814 W/m 25,7 km/h (4 Bft) 93,88 %
08.06.2019 16:18 18,3 C 18,3 C 17,8 C 64 % 1019,4 hPa 0,0 l/m 2 min 0 min 821 W/m 25,7 km/h (4 Bft) 94,59 %
08.06.2019 16:20 18,5 C 18,9 C 18,3 C 61 % 1019,5 hPa 0,0 l/m 2 min 0 min 836 W/m 32,2 km/h (5 Bft) 95,74 %
08.06.2019 16:22 18,6 C 18,9 C 18,3 C 61 % 1019,3 hPa 0,0 l/m 2 min 0 min 860 W/m 22,5 km/h (4 Bft) 95,74 %
08.06.2019 16:24 18,7 C 18,9 C 18,3 C 61 % 1019,2 hPa 0,0 l/m 2 min 0 min 855 W/m 35,4 km/h (5 Bft) 95,74 %
08.06.2019 16:26 18,9 C 19,4 C 18,9 C 60 % 1019,2 hPa 0,0 l/m 2 min 0 min 834 W/m 19,3 km/h (3 Bft) 95,74 %
08.06.2019 16:28 19,1 C 19,4 C 18,9 C 59 % 1019,2 hPa 0,0 l/m 2 min 0 min 809 W/m 35,4 km/h (5 Bft) 95,74 %
08.06.2019 16:30 19,2 C 19,4 C 18,9 C 58 % 1019,1 hPa 0,0 l/m 2 min 0 min 797 W/m 29,0 km/h (5 Bft) 97,83 %
08.06.2019 16:32 19,3 C 19,4 C 18,9 C 58 % 1019,1 hPa 0,0 l/m 2 min 0 min 804 W/m 29,0 km/h (5 Bft) 95,74 %
08.06.2019 16:34 19,4 C 19,4 C 18,9 C 58 % 1019,0 hPa 0,0 l/m 2 min 0 min 733 W/m 29,0 km/h (5 Bft) 97,87 %
08.06.2019 16:36 19,4 C 18,9 C 18,3 C 56 % 1019,2 hPa 0,0 l/m 0 min 0 min 158 W/m 32,2 km/h (5 Bft) 96,30 %
08.06.2019 16:38 19,3 C 18,3 C 17,8 C 56 % 1019,1 hPa 0,0 l/m 0 min 0 min 160 W/m 32,2 km/h (5 Bft) 97,83 %
08.06.2019 16:40 19,3 C 18,3 C 17,8 C 56 % 1019,3 hPa 0,0 l/m 0 min 0 min 119 W/m 51,5 km/h (7 Bft) 95,74 %
08.06.2019 16:42 19,2 C 18,3 C 17,8 C 57 % 1019,3 hPa 0,0 l/m 0 min 0 min 132 W/m 32,2 km/h (5 Bft) 95,74 %
08.06.2019 16:44 19,0 C 17,8 C 17,8 C 55 % 1019,6 hPa 0,0 l/m 0 min 0 min 131 W/m 38,6 km/h (5 Bft) 97,87 %
08.06.2019 16:46 18,9 C 17,8 C 17,8 C 56 % 1019,3 hPa 0,0 l/m 0 min 0 min 124 W/m 22,5 km/h (4 Bft) 97,87 %
08.06.2019 16:48 18,8 C 17,8 C 17,8 C 57 % 1019,5 hPa 0,0 l/m 0 min 0 min 112 W/m 25,7 km/h (4 Bft) 95,74 %
08.06.2019 16:50 18,7 C 17,8 C 17,2 C 58 % 1019,4 hPa 0,0 l/m 0 min 0 min 100 W/m 16,1 km/h (3 Bft) 95,65 %
08.06.2019 16:52 18,6 C 17,2 C 17,2 C 59 % 1019,7 hPa 0,0 l/m 0 min 0 min 93 W/m 19,3 km/h (3 Bft) 97,87 %
08.06.2019 16:54 18,4 C 16,7 C 16,7 C 62 % 1019,9 hPa 0,0 l/m 0 min 0 min 116 W/m 22,5 km/h (4 Bft) 97,87 %
08.06.2019 16:56 18,2 C 16,7 C 16,7 C 64 % 1019,6 hPa 0,0 l/m 0 min 0 min 162 W/m 16,1 km/h (3 Bft) 97,87 %
08.06.2019 16:58 18,0 C 16,7 C 16,1 C 65 % 1019,7 hPa 0,0 l/m 0 min 0 min 158 W/m 12,9 km/h (3 Bft) 100,00 %
08.06.2019 17:00 17,8 C 16,7 C 16,1 C 67 % 1019,7 hPa 0,0 l/m 0 min 0 min 150 W/m 16,1 km/h (3 Bft) 97,87 %
08.06.2019 17:02 17,7 C 16,1 C 16,1 C 68 % 1019,8 hPa 0,0 l/m 0 min 0 min 132 W/m 12,9 km/h (3 Bft) 97,87 %
08.06.2019 17:04 17,6 C 16,1 C 16,1 C 67 % 1019,8 hPa 0,0 l/m 0 min 0 min 119 W/m 12,9 km/h (3 Bft) 95,74 %
08.06.2019 17:06 17,4 C 16,1 C 16,1 C 68 % 1019,9 hPa 0,0 l/m 0 min 0 min 107 W/m 12,9 km/h (3 Bft) 97,87 %
08.06.2019 17:08 17,3 C 16,1 C 16,1 C 68 % 1019,9 hPa 0,0 l/m 0 min 0 min 105 W/m 9,7 km/h (2 Bft) 97,87 %
08.06.2019 17:10 17,2 C 16,1 C 15,6 C 68 % 1020,0 hPa 0,0 l/m 0 min 0 min 103 W/m 9,7 km/h (2 Bft) 97,87 %
08.06.2019 17:12 17,1 C 16,1 C 16,1 C 69 % 1019,9 hPa 0,0 l/m 0 min 0 min 110 W/m 9,7 km/h (2 Bft) 95,74 %
08.06.2019 17:14 17,0 C 16,1 C 15,6 C 69 % 1020,0 hPa 0,0 l/m 0 min 0 min 113 W/m 9,7 km/h (2 Bft) 97,83 %
08.06.2019 17:16 16,9 C 16,1 C 15,6 C 70 % 1020,2 hPa 0,0 l/m 0 min 0 min 104 W/m 12,9 km/h (3 Bft) 97,87 %
08.06.2019 17:18 16,8 C 15,6 C 15,6 C 71 % 1020,3 hPa 0,0 l/m 0 min 0 min 78 W/m 16,1 km/h (3 Bft) 95,74 %
08.06.2019 17:20 16,7 C 15,6 C 15,6 C 70 % 1020,4 hPa 0,0 l/m 0 min 0 min 53 W/m 41,8 km/h (6 Bft) 97,87 %
08.06.2019 17:22 16,5 C 15,0 C 15,0 C 70 % 1020,5 hPa 0,0 l/m 0 min 0 min 41 W/m 35,4 km/h (5 Bft) 97,87 %
08.06.2019 17:24 16,3 C 15,0 C 15,0 C 69 % 1020,5 hPa 0,0 l/m 0 min 0 min 44 W/m 19,3 km/h (3 Bft) 95,74 %
08.06.2019 17:26 16,1 C 14,4 C 14,4 C 68 % 1020,6 hPa 0,0 l/m 0 min 2 min 46 W/m 19,3 km/h (3 Bft) 97,83 %
08.06.2019 17:28 15,9 C 13,9 C 13,9 C 69 % 1020,5 hPa 0,0 l/m 0 min 2 min 57 W/m 12,9 km/h (3 Bft) 97,87 %
08.06.2019 17:30 15,8 C 13,9 C 13,9 C 70 % 1020,4 hPa 0,0 l/m 0 min 0 min 65 W/m 16,1 km/h (3 Bft) 95,74 %
08.06.2019 17:32 15,6 C 13,3 C 13,3 C 71 % 1020,4 hPa 0,0 l/m 0 min 2 min 90 W/m 12,9 km/h (3 Bft) 97,87 %
08.06.2019 17:34 15,4 C 12,8 C 13,3 C 72 % 1020,1 hPa 0,0 l/m 0 min 2 min 127 W/m 16,1 km/h (3 Bft) 97,87 %
08.06.2019 17:36 15,4 C 13,3 C 13,3 C 73 % 1020,0 hPa 0,0 l/m 0 min 0 min 147 W/m 9,7 km/h (2 Bft) 97,83 %
08.06.2019 17:38 15,3 C 13,9 C 13,9 C 74 % 1019,9 hPa 0,0 l/m 0 min 0 min 171 W/m 9,7 km/h (2 Bft) 100,00 %
08.06.2019 17:40 15,3 C 14,4 C 13,9 C 74 % 1020,0 hPa 0,0 l/m 0 min 0 min 256 W/m 9,7 km/h (2 Bft) 95,74 %
08.06.2019 17:42 15,3 C 15,6 C 15,0 C 75 % 1020,0 hPa 0,0 l/m 2 min 0 min 323 W/m 12,9 km/h (3 Bft) 97,87 %
08.06.2019 17:44 15,4 C 16,7 C 15,6 C 75 % 1020,0 hPa 0,0 l/m 2 min 0 min 334 W/m 9,7 km/h (2 Bft) 97,87 %
08.06.2019 17:46 15,5 C 16,7 C 16,1 C 76 % 1020,0 hPa 0,0 l/m 0 min 0 min 244 W/m 12,9 km/h (3 Bft) 97,87 %
08.06.2019 17:48 15,6 C 16,7 C 16,1 C 77 % 1020,0 hPa 0,0 l/m 0 min 0 min 157 W/m 9,7 km/h (2 Bft) 95,74 %
08.06.2019 17:50 15,7 C 16,1 C 15,6 C 76 % 1020,2 hPa 0,0 l/m 0 min 0 min 158 W/m 12,9 km/h (3 Bft) 97,83 %
08.06.2019 17:52 15,7 C 16,1 C 15,6 C 75 % 1020,3 hPa 0,0 l/m 0 min 0 min 121 W/m 16,1 km/h (3 Bft) 95,74 %
08.06.2019 17:54 15,7 C 15,6 C 15,6 C 76 % 1020,4 hPa 0,0 l/m 0 min 0 min 95 W/m 6,4 km/h (2 Bft) 97,87 %
08.06.2019 17:56 15,7 C 15,6 C 15,0 C 77 % 1020,9 hPa 0,0 l/m 0 min 0 min 61 W/m 16,1 km/h (3 Bft) 97,87 %
08.06.2019 17:58 15,7 C 15,0 C 15,0 C 77 % 1020,8 hPa 0,0 l/m 0 min 0 min 47 W/m 9,7 km/h (2 Bft) 95,74 %
08.06.2019 18:00 15,7 C 14,4 C 14,4 C 77 % 1020,9 hPa 0,0 l/m 0 min 0 min 65 W/m 9,7 km/h (2 Bft) 97,83 %
08.06.2019 18:02 15,6 C 14,4 C 14,4 C 77 % 1021,2 hPa 0,0 l/m 0 min 0 min 87 W/m 25,7 km/h (4 Bft) 97,87 %
08.06.2019 18:04 15,5 C 14,4 C 14,4 C 77 % 1020,8 hPa 0,0 l/m 0 min 0 min 83 W/m 19,3 km/h (3 Bft) 97,87 %
08.06.2019 18:08 15,4 C 14,4 C 14,4 C 77 % 1020,7 hPa 0,0 l/m 0 min 0 min 73 W/m 16,1 km/h (3 Bft) 98,94 %
08.06.2019 18:10 15,3 C 13,9 C 12,8 C 77 % 1020,8 hPa 0,0 l/m 0 min 2 min 37 W/m 19,3 km/h (3 Bft) 100,00 %
08.06.2019 18:12 15,2 C 12,8 C 12,2 C 78 % 1021,0 hPa 0,2 l/m 0 min 2 min 37 W/m 19,3 km/h (3 Bft) 100,00 %
08.06.2019 18:14 15,1 C 11,7 C 11,7 C 79 % 1020,9 hPa 0,0 l/m 0 min 2 min 35 W/m 12,9 km/h (3 Bft) 97,87 %
08.06.2019 18:16 14,9 C 11,1 C 11,7 C 80 % 1020,8 hPa 0,0 l/m 0 min 2 min 37 W/m 9,7 km/h (2 Bft) 100,00 %
08.06.2019 18:18 14,8 C 11,1 C 11,7 C 81 % 1021,0 hPa 0,0 l/m 0 min 2 min 39 W/m 9,7 km/h (2 Bft) 100,00 %
08.06.2019 18:20 14,6 C 11,1 C 11,7 C 81 % 1021,0 hPa 0,0 l/m 0 min 2 min 45 W/m 22,5 km/h (4 Bft) 100,00 %
08.06.2019 18:22 14,4 C 11,1 C 11,1 C 82 % 1020,9 hPa 0,2 l/m 0 min 2 min 59 W/m 19,3 km/h (3 Bft) 100,00 %
08.06.2019 18:24 14,3 C 11,1 C 11,1 C 82 % 1020,8 hPa 0,0 l/m 0 min 2 min 93 W/m 16,1 km/h (3 Bft) 100,00 %
08.06.2019 18:26 14,2 C 11,7 C 11,7 C 83 % 1020,8 hPa 0,0 l/m 0 min 2 min 185 W/m 9,7 km/h (2 Bft) 97,87 %
08.06.2019 18:28 14,2 C 12,2 C 12,2 C 84 % 1020,6 hPa 0,2 l/m 2 min 2 min 378 W/m 9,7 km/h (2 Bft) 100,00 %
08.06.2019 18:30 14,2 C 12,8 C 12,2 C 85 % 1020,5 hPa 0,0 l/m 2 min 2 min 516 W/m 3,2 km/h (1 Bft) 100,00 %
08.06.2019 18:32 14,3 C 13,3 C 12,8 C 85 % 1020,7 hPa 0,0 l/m 2 min 0 min 571 W/m 9,7 km/h (2 Bft) 100,00 %
08.06.2019 18:34 14,4 C 13,3 C 12,8 C 86 % 1020,7 hPa 0,0 l/m 2 min 0 min 276 W/m 6,4 km/h (2 Bft) 100,00 %
08.06.2019 18:36 14,4 C 12,8 C 12,8 C 86 % 1020,7 hPa 0,0 l/m 0 min 0 min 133 W/m 9,7 km/h (2 Bft) 100,00 %
08.06.2019 18:38 14,4 C 12,8 C 12,2 C 86 % 1020,7 hPa 0,0 l/m 0 min 0 min 98 W/m 12,9 km/h (3 Bft) 95,74 %
08.06.2019 18:40 14,4 C 12,8 C 12,2 C 86 % 1020,7 hPa 0,0 l/m 0 min 0 min 64 W/m 16,1 km/h (3 Bft) 100,00 %
08.06.2019 18:42 14,4 C 12,2 C 12,2 C 85 % 1020,7 hPa 0,0 l/m 0 min 0 min 45 W/m 12,9 km/h (3 Bft) 100,00 %
08.06.2019 18:44 14,3 C 12,2 C 12,2 C 85 % 1020,8 hPa 0,0 l/m 0 min 0 min 34 W/m 9,7 km/h (2 Bft) 100,00 %
08.06.2019 18:46 14,3 C 12,2 C 12,2 C 85 % 1020,8 hPa 0,0 l/m 0 min 0 min 26 W/m 16,1 km/h (3 Bft) 100,00 %
08.06.2019 18:48 14,3 C 12,2 C 12,2 C 85 % 1020,8 hPa 0,0 l/m 0 min 2 min 29 W/m 19,3 km/h (3 Bft) 100,00 %
08.06.2019 18:50 14,2 C 12,2 C 12,2 C 85 % 1020,8 hPa 0,0 l/m 0 min 2 min 38 W/m 9,7 km/h (2 Bft) 100,00 %
08.06.2019 18:52 14,2 C 12,2 C 12,2 C 86 % 1020,8 hPa 0,0 l/m 0 min 2 min 35 W/m 9,7 km/h (2 Bft) 100,00 %
08.06.2019 18:54 14,2 C 11,7 C 11,7 C 86 % 1020,9 hPa 0,0 l/m 0 min 2 min 25 W/m 6,4 km/h (2 Bft) 97,87 %
08.06.2019 18:56 14,2 C 11,7 C 11,7 C 86 % 1021,0 hPa 0,0 l/m 0 min 2 min 16 W/m 12,9 km/h (3 Bft) 97,87 %
08.06.2019 18:58 14,2 C 11,7 C 11,7 C 86 % 1021,0 hPa 0,0 l/m 0 min 2 min 23 W/m 12,9 km/h (3 Bft) 97,87 %
08.06.2019 19:00 14,2 C 11,7 C 11,7 C 86 % 1021,1 hPa 0,0 l/m 0 min 2 min 41 W/m 16,1 km/h (3 Bft) 93,48 %
08.06.2019 19:02 14,2 C 11,7 C 11,7 C 86 % 1021,1 hPa 0,0 l/m 0 min 2 min 78 W/m 22,5 km/h (4 Bft) 95,83 %
08.06.2019 19:04 14,2 C 12,2 C 11,7 C 86 % 1021,1 hPa 0,0 l/m 0 min 2 min 116 W/m 16,1 km/h (3 Bft) 97,87 %
08.06.2019 19:06 14,2 C 12,2 C 12,2 C 86 % 1021,0 hPa 0,0 l/m 0 min 2 min 105 W/m 19,3 km/h (3 Bft) 97,87 %
08.06.2019 19:08 14,2 C 12,2 C 12,2 C 87 % 1021,1 hPa 0,0 l/m 0 min 2 min 89 W/m 19,3 km/h (3 Bft) 97,37 %
08.06.2019 19:10 14,2 C 12,2 C 12,2 C 87 % 1021,2 hPa 0,0 l/m 0 min 2 min 70 W/m 16,1 km/h (3 Bft) 97,87 %
08.06.2019 19:12 14,2 C 12,2 C 12,2 C 87 % 1021,1 hPa 0,0 l/m 0 min 2 min 59 W/m 12,9 km/h (3 Bft) 95,65 %
08.06.2019 19:14 14,2 C 12,2 C 12,2 C 87 % 1021,1 hPa 0,0 l/m 0 min 2 min 63 W/m 9,7 km/h (2 Bft) 95,74 %
08.06.2019 19:16 14,2 C 12,2 C 12,2 C 87 % 1021,0 hPa 0,0 l/m 0 min 2 min 70 W/m 16,1 km/h (3 Bft) 98,11 %
08.06.2019 19:18 14,2 C 12,8 C 12,2 C 87 % 1021,1 hPa 0,0 l/m 2 min 0 min 342 W/m 12,9 km/h (3 Bft) 97,87 %
08.06.2019 19:20 14,2 C 13,3 C 12,2 C 87 % 1021,0 hPa 0,0 l/m 2 min 0 min 346 W/m 9,7 km/h (2 Bft) 98,00 %
08.06.2019 19:22 14,2 C 13,3 C 12,2 C 87 % 1021,1 hPa 0,0 l/m 2 min 0 min 218 W/m 6,4 km/h (2 Bft) 95,65 %
08.06.2019 19:24 14,2 C 13,3 C 12,2 C 87 % 1021,2 hPa 0,0 l/m 0 min 0 min 91 W/m 12,9 km/h (3 Bft) 95,74 %
08.06.2019 19:26 14,3 C 12,8 C 12,2 C 87 % 1021,2 hPa 0,0 l/m 0 min 0 min 58 W/m 16,1 km/h (3 Bft) 97,87 %
08.06.2019 19:28 14,3 C 12,8 C 12,2 C 87 % 1021,3 hPa 0,0 l/m 0 min 2 min 41 W/m 9,7 km/h (2 Bft) 95,74 %
08.06.2019 19:30 14,3 C 12,8 C 12,2 C 87 % 1021,1 hPa 0,0 l/m 0 min 0 min 53 W/m 16,1 km/h (3 Bft) 97,87 %
08.06.2019 19:32 14,3 C 12,8 C 12,2 C 86 % 1021,1 hPa 0,0 l/m 0 min 0 min 66 W/m 12,9 km/h (3 Bft) 95,74 %
08.06.2019 19:34 14,3 C 12,8 C 12,2 C 86 % 1021,2 hPa 0,0 l/m 0 min 0 min 69 W/m 12,9 km/h (3 Bft) 95,65 %
08.06.2019 19:36 14,3 C 12,8 C 12,2 C 86 % 1021,2 hPa 0,0 l/m 0 min 0 min 76 W/m 12,9 km/h (3 Bft) 95,74 %
08.06.2019 19:38 14,3 C 13,3 C 12,2 C 86 % 1021,2 hPa 0,0 l/m 0 min 0 min 140 W/m 22,5 km/h (4 Bft) 95,74 %
08.06.2019 19:40 14,4 C 13,3 C 12,2 C 85 % 1021,2 hPa 0,0 l/m 2 min 0 min 265 W/m 19,3 km/h (3 Bft) 95,74 %
08.06.2019 19:42 14,4 C 13,3 C 12,2 C 85 % 1021,2 hPa 0,0 l/m 2 min 0 min 279 W/m 25,7 km/h (4 Bft) 95,74 %
08.06.2019 19:44 14,4 C 13,3 C 12,8 C 84 % 1021,2 hPa 0,0 l/m 2 min 0 min 234 W/m 22,5 km/h (4 Bft) 95,74 %
08.06.2019 19:46 14,5 C 13,3 C 12,8 C 84 % 1021,1 hPa 0,0 l/m 0 min 0 min 124 W/m 16,1 km/h (3 Bft) 95,65 %
08.06.2019 19:48 14,6 C 13,9 C 12,2 C 84 % 1021,1 hPa 0,0 l/m 0 min 0 min 70 W/m 12,9 km/h (3 Bft) 93,62 %
08.06.2019 19:50 14,6 C 13,9 C 12,8 C 83 % 1021,1 hPa 0,0 l/m 0 min 0 min 48 W/m 19,3 km/h (3 Bft) 97,37 %
08.06.2019 19:52 14,7 C 13,9 C 12,2 C 82 % 1021,0 hPa 0,0 l/m 0 min 0 min 47 W/m 16,1 km/h (3 Bft) 95,74 %
08.06.2019 19:54 14,7 C 13,9 C 12,8 C 82 % 1021,0 hPa 0,0 l/m 0 min 0 min 45 W/m 12,9 km/h (3 Bft) 95,74 %
08.06.2019 19:56 14,8 C 13,9 C 12,8 C 81 % 1021,0 hPa 0,0 l/m 0 min 0 min 44 W/m 19,3 km/h (3 Bft) 94,34 %
08.06.2019 19:58 14,8 C 13,9 C 12,8 C 81 % 1021,2 hPa 0,0 l/m 0 min 0 min 42 W/m 22,5 km/h (4 Bft) 97,83 %
08.06.2019 20:00 14,9 C 14,4 C 12,8 C 80 % 1021,2 hPa 0,0 l/m 0 min 0 min 42 W/m 16,1 km/h (3 Bft) 97,87 %
08.06.2019 20:02 14,9 C 15,0 C 12,8 C 79 % 1021,2 hPa 0,0 l/m 0 min 0 min 42 W/m 16,1 km/h (3 Bft) 98,00 %
08.06.2019 20:04 15,0 C 15,0 C 13,3 C 79 % 1021,3 hPa 0,0 l/m 0 min 0 min 40 W/m 22,5 km/h (4 Bft) 95,74 %
08.06.2019 20:06 15,1 C 15,0 C 13,3 C 79 % 1021,1 hPa 0,0 l/m 0 min 0 min 40 W/m 12,9 km/h (3 Bft) 97,87 %
08.06.2019 20:08 15,1 C 15,0 C 13,9 C 78 % 1021,3 hPa 0,0 l/m 0 min 0 min 40 W/m 16,1 km/h (3 Bft) 96,15 %
08.06.2019 20:10 15,2 C 15,0 C 13,9 C 78 % 1021,3 hPa 0,0 l/m 0 min 0 min 40 W/m 16,1 km/h (3 Bft) 96,55 %
08.06.2019 20:12 15,2 C 15,0 C 13,9 C 78 % 1021,4 hPa 0,0 l/m 0 min 0 min 40 W/m 19,3 km/h (3 Bft) 97,87 %
08.06.2019 20:14 15,3 C 15,0 C 13,9 C 77 % 1021,4 hPa 0,0 l/m 0 min 0 min 40 W/m 16,1 km/h (3 Bft) 96,23 %
08.06.2019 20:16 15,3 C 15,0 C 13,9 C 77 % 1021,4 hPa 0,0 l/m 0 min 0 min 42 W/m 9,7 km/h (2 Bft) 97,87 %
08.06.2019 20:18 15,3 C 15,0 C 13,9 C 77 % 1021,4 hPa 0,0 l/m 0 min 0 min 45 W/m 16,1 km/h (3 Bft) 93,62 %
08.06.2019 20:20 15,4 C 15,0 C 14,4 C 77 % 1021,4 hPa 0,0 l/m 0 min 0 min 48 W/m 16,1 km/h (3 Bft) 97,87 %
08.06.2019 20:22 15,4 C 15,0 C 14,4 C 77 % 1021,3 hPa 0,0 l/m 0 min 0 min 51 W/m 22,5 km/h (4 Bft) 93,48 %
08.06.2019 20:24 15,4 C 15,0 C 14,4 C 77 % 1021,3 hPa 0,0 l/m 0 min 0 min 48 W/m 19,3 km/h (3 Bft) 97,87 %
08.06.2019 20:26 15,5 C 15,6 C 14,4 C 76 % 1021,4 hPa 0,0 l/m 0 min 0 min 49 W/m 12,9 km/h (3 Bft) 97,87 %
08.06.2019 20:28 15,6 C 15,6 C 14,4 C 76 % 1021,4 hPa 0,0 l/m 0 min 0 min 56 W/m 16,1 km/h (3 Bft) 97,87 %
08.06.2019 20:30 15,6 C 15,6 C 14,4 C 77 % 1021,4 hPa 0,0 l/m 0 min 0 min 64 W/m 19,3 km/h (3 Bft) 97,87 %
08.06.2019 20:32 15,6 C 15,6 C 14,4 C 77 % 1021,4 hPa 0,0 l/m 0 min 0 min 65 W/m 16,1 km/h (3 Bft) 97,83 %
08.06.2019 20:34 15,7 C 15,6 C 15,0 C 77 % 1021,4 hPa 0,0 l/m 0 min 0 min 60 W/m 16,1 km/h (3 Bft) 96,00 %
08.06.2019 20:36 15,7 C 15,6 C 15,0 C 77 % 1021,4 hPa 0,0 l/m 0 min 0 min 52 W/m 16,1 km/h (3 Bft) 97,87 %
08.06.2019 20:38 15,7 C 15,6 C 14,4 C 77 % 1021,4 hPa 0,0 l/m 0 min 0 min 45 W/m 16,1 km/h (3 Bft) 97,37 %
08.06.2019 20:40 15,7 C 15,6 C 14,4 C 77 % 1021,5 hPa 0,0 l/m 0 min 0 min 38 W/m 9,7 km/h (2 Bft) 97,87 %
08.06.2019 20:42 15,7 C 15,6 C 14,4 C 77 % 1021,4 hPa 0,0 l/m 0 min 0 min 35 W/m 9,7 km/h (2 Bft) 97,87 %
08.06.2019 20:44 15,8 C 15,6 C 14,4 C 77 % 1021,4 hPa 0,0 l/m 0 min 0 min 39 W/m 6,4 km/h (2 Bft) 98,08 %
08.06.2019 20:46 15,8 C 15,6 C 14,4 C 77 % 1021,4 hPa 0,0 l/m 0 min 0 min 46 W/m 9,7 km/h (2 Bft) 95,74 %
08.06.2019 20:48 15,8 C 15,6 C 14,4 C 77 % 1021,4 hPa 0,0 l/m 0 min 0 min 49 W/m 9,7 km/h (2 Bft) 98,00 %
08.06.2019 20:50 15,8 C 15,6 C 15,0 C 77 % 1021,4 hPa 0,0 l/m 0 min 0 min 52 W/m 12,9 km/h (3 Bft) 97,87 %
08.06.2019 20:52 15,8 C 15,6 C 15,0 C 77 % 1021,4 hPa 0,0 l/m 0 min 0 min 52 W/m 12,9 km/h (3 Bft) 93,62 %
08.06.2019 20:54 15,8 C 15,6 C 15,0 C 76 % 1021,5 hPa 0,0 l/m 0 min 0 min 46 W/m 9,7 km/h (2 Bft) 97,87 %
08.06.2019 20:56 15,8 C 15,6 C 15,0 C 76 % 1021,5 hPa 0,0 l/m 0 min 0 min 40 W/m 16,1 km/h (3 Bft) 97,83 %
08.06.2019 20:58 15,8 C 15,6 C 15,0 C 76 % 1021,5 hPa 0,0 l/m 0 min 0 min 36 W/m 12,9 km/h (3 Bft) 97,87 %
08.06.2019 21:00 15,9 C 15,6 C 15,0 C 75 % 1021,5 hPa 0,0 l/m 0 min 0 min 36 W/m 16,1 km/h (3 Bft) 100,00 %
08.06.2019 21:02 15,9 C 15,6 C 15,0 C 75 % 1021,5 hPa 0,0 l/m 0 min 0 min 40 W/m 12,9 km/h (3 Bft) 97,92 %
08.06.2019 21:04 15,9 C 15,6 C 15,0 C 75 % 1021,7 hPa 0,0 l/m 2 min 0 min 46 W/m 12,9 km/h (3 Bft) 100,00 %
08.06.2019 21:06 15,9 C 15,6 C 15,0 C 75 % 1021,7 hPa 0,0 l/m 2 min 0 min 51 W/m 16,1 km/h (3 Bft) 97,30 %
08.06.2019 21:08 15,9 C 15,6 C 15,0 C 74 % 1021,8 hPa 0,0 l/m 2 min 0 min 50 W/m 22,5 km/h (4 Bft) 100,00 %
08.06.2019 21:10 15,9 C 15,6 C 15,0 C 74 % 1021,7 hPa 0,0 l/m 2 min 0 min 41 W/m 25,7 km/h (4 Bft) 100,00 %
08.06.2019 21:12 15,9 C 15,6 C 15,0 C 73 % 1021,7 hPa 0,0 l/m 0 min 0 min 27 W/m 19,3 km/h (3 Bft) 97,87 %
08.06.2019 21:14 15,9 C 15,6 C 15,0 C 73 % 1021,7 hPa 0,0 l/m 0 min 0 min 19 W/m 16,1 km/h (3 Bft) 100,00 %
08.06.2019 21:16 15,9 C 15,0 C 15,0 C 73 % 1021,8 hPa 0,0 l/m 0 min 0 min 16 W/m 22,5 km/h (4 Bft) 100,00 %
08.06.2019 21:18 15,9 C 15,0 C 14,4 C 73 % 1021,9 hPa 0,0 l/m 0 min 0 min 14 W/m 16,1 km/h (3 Bft) 100,00 %
08.06.2019 21:20 15,9 C 15,0 C 14,4 C 73 % 1021,9 hPa 0,0 l/m 0 min 0 min 12 W/m 19,3 km/h (3 Bft) 100,00 %
08.06.2019 21:22 15,9 C 15,0 C 14,4 C 73 % 1021,9 hPa 0,0 l/m 0 min 0 min 13 W/m 16,1 km/h (3 Bft) 100,00 %
08.06.2019 21:24 15,9 C 14,4 C 14,4 C 74 % 1021,8 hPa 0,0 l/m 0 min 0 min 13 W/m 16,1 km/h (3 Bft) 100,00 %
08.06.2019 21:26 15,9 C 14,4 C 13,9 C 74 % 1021,8 hPa 0,0 l/m 0 min 0 min 13 W/m 12,9 km/h (3 Bft) 100,00 %
08.06.2019 21:28 15,9 C 14,4 C 13,9 C 75 % 1021,8 hPa 0,0 l/m 0 min 0 min 14 W/m 12,9 km/h (3 Bft) 100,00 %
08.06.2019 21:30 15,8 C 14,4 C 13,9 C 75 % 1021,9 hPa 0,0 l/m 0 min 0 min 14 W/m 16,1 km/h (3 Bft) 100,00 %
08.06.2019 21:32 15,8 C 14,4 C 13,9 C 75 % 1022,0 hPa 0,0 l/m 0 min 0 min 13 W/m 19,3 km/h (3 Bft) 100,00 %
08.06.2019 21:34 15,8 C 14,4 C 13,9 C 75 % 1022,0 hPa 0,0 l/m 0 min 0 min 12 W/m 12,9 km/h (3 Bft) 100,00 %
08.06.2019 21:36 15,7 C 13,9 C 13,9 C 76 % 1021,9 hPa 0,0 l/m 0 min 0 min 11 W/m 9,7 km/h (2 Bft) 100,00 %
08.06.2019 21:38 15,7 C 13,9 C 13,9 C 76 % 1022,0 hPa 0,0 l/m 0 min 0 min 10 W/m 12,9 km/h (3 Bft) 100,00 %
08.06.2019 21:40 15,6 C 13,9 C 13,3 C 76 % 1022,0 hPa 0,0 l/m 0 min 0 min 7 W/m 12,9 km/h (3 Bft) 100,00 %
08.06.2019 21:42 15,6 C 13,9 C 13,3 C 76 % 1022,0 hPa 0,0 l/m 0 min 0 min 5 W/m 12,9 km/h (3 Bft) 100,00 %
08.06.2019 21:44 15,5 C 13,9 C 13,3 C 77 % 1022,0 hPa 0,0 l/m 0 min 0 min 5 W/m 12,9 km/h (3 Bft) 100,00 %
08.06.2019 21:46 15,4 C 13,9 C 13,3 C 77 % 1022,1 hPa 0,0 l/m 0 min 0 min 0 W/m 9,7 km/h (2 Bft) 100,00 %
08.06.2019 21:48 15,4 C 13,9 C 13,3 C 77 % 1022,0 hPa 0,0 l/m 0 min 0 min 0 W/m 9,7 km/h (2 Bft) 100,00 %
08.06.2019 21:50 15,3 C 13,9 C 13,3 C 77 % 1022,1 hPa 0,0 l/m 0 min 0 min 0 W/m 12,9 km/h (3 Bft) 97,87 %
08.06.2019 21:52 15,3 C 13,9 C 13,3 C 77 % 1022,2 hPa 0,0 l/m 0 min 0 min 0 W/m 12,9 km/h (3 Bft) 97,87 %
08.06.2019 21:54 15,2 C 13,9 C 13,3 C 78 % 1022,1 hPa 0,0 l/m 0 min 0 min 0 W/m 9,7 km/h (2 Bft) 100,00 %
08.06.2019 21:56 15,2 C 13,9 C 13,3 C 78 % 1022,2 hPa 0,0 l/m 0 min 0 min 0 W/m 12,9 km/h (3 Bft) 100,00 %
08.06.2019 21:58 15,1 C 13,3 C 13,3 C 78 % 1022,2 hPa 0,0 l/m 0 min 0 min 0 W/m 12,9 km/h (3 Bft) 97,87 %
08.06.2019 22:00 15,1 C 13,3 C 12,8 C 78 % 1022,2 hPa 0,0 l/m 0 min 0 min 0 W/m 9,7 km/h (2 Bft) 97,87 %
08.06.2019 22:02 15,0 C 13,3 C 12,8 C 78 % 1022,2 hPa 0,0 l/m 0 min 0 min 0 W/m 12,9 km/h (3 Bft) 96,36 %
08.06.2019 22:04 14,9 C 13,3 C 12,8 C 79 % 1022,2 hPa 0,0 l/m 0 min 0 min 0 W/m 12,9 km/h (3 Bft) 95,74 %
08.06.2019 22:06 14,9 C 13,3 C 12,8 C 79 % 1022,2 hPa 0,0 l/m 0 min 0 min 0 W/m 12,9 km/h (3 Bft) 97,83 %
08.06.2019 22:08 14,8 C 13,3 C 12,8 C 79 % 1022,3 hPa 0,0 l/m 0 min 0 min 0 W/m 19,3 km/h (3 Bft) 97,87 %
08.06.2019 22:10 14,8 C 13,3 C 12,8 C 79 % 1022,3 hPa 0,0 l/m 0 min 0 min 0 W/m 9,7 km/h (2 Bft) 97,87 %
08.06.2019 22:12 14,7 C 13,3 C 12,8 C 80 % 1022,4 hPa 0,0 l/m 0 min 0 min 0 W/m 19,3 km/h (3 Bft) 97,87 %
08.06.2019 22:14 14,7 C 13,3 C 12,8 C 80 % 1022,4 hPa 0,0 l/m 0 min 0 min 0 W/m 16,1 km/h (3 Bft) 93,62 %
08.06.2019 22:16 14,6 C 13,3 C 12,8 C 80 % 1022,4 hPa 0,0 l/m 0 min 0 min 0 W/m 12,9 km/h (3 Bft) 97,96 %
08.06.2019 22:18 14,6 C 13,3 C 12,8 C 80 % 1022,5 hPa 0,0 l/m 0 min 0 min 0 W/m 9,7 km/h (2 Bft) 97,87 %
08.06.2019 22:20 14,5 C 13,3 C 12,8 C 80 % 1022,5 hPa 0,0 l/m 0 min 0 min 0 W/m 12,9 km/h (3 Bft) 97,87 %
08.06.2019 22:22 14,4 C 12,8 C 12,8 C 80 % 1022,5 hPa 0,0 l/m 0 min 0 min 0 W/m 12,9 km/h (3 Bft) 97,87 %
08.06.2019 22:24 14,4 C 12,8 C 12,8 C 80 % 1022,5 hPa 0,0 l/m 0 min 0 min 0 W/m 12,9 km/h (3 Bft) 97,87 %
08.06.2019 22:26 14,4 C 12,8 C 12,8 C 81 % 1022,5 hPa 0,0 l/m 0 min 0 min 0 W/m 16,1 km/h (3 Bft) 94,29 %
08.06.2019 22:28 14,3 C 12,8 C 12,8 C 81 % 1022,6 hPa 0,0 l/m 0 min 0 min 0 W/m 19,3 km/h (3 Bft) 97,22 %
08.06.2019 22:30 14,2 C 12,8 C 12,8 C 81 % 1022,5 hPa 0,0 l/m 0 min 0 min 0 W/m 12,9 km/h (3 Bft) 98,44 %
08.06.2019 22:32 14,2 C 12,8 C 12,8 C 81 % 1022,5 hPa 0,0 l/m 0 min 0 min 0 W/m 9,7 km/h (2 Bft) 94,00 %
08.06.2019 22:34 14,2 C 12,8 C 12,8 C 81 % 1022,5 hPa 0,0 l/m 0 min 0 min 0 W/m 9,7 km/h (2 Bft) 97,37 %
08.06.2019 22:36 14,2 C 12,8 C 12,8 C 81 % 1022,6 hPa 0,0 l/m 0 min 0 min 0 W/m 9,7 km/h (2 Bft) 92,45 %
08.06.2019 22:38 14,2 C 12,8 C 12,2 C 81 % 1022,6 hPa 0,0 l/m 0 min 0 min 0 W/m 12,9 km/h (3 Bft) 93,62 %
08.06.2019 22:40 14,2 C 12,8 C 12,2 C 81 % 1022,5 hPa 0,0 l/m 0 min 0 min 0 W/m 9,7 km/h (2 Bft) 95,74 %
08.06.2019 22:42 14,1 C 12,8 C 12,2 C 81 % 1022,6 hPa 0,0 l/m 0 min 0 min 0 W/m 9,7 km/h (2 Bft) 95,92 %
08.06.2019 22:44 14,1 C 12,8 C 12,2 C 81 % 1022,5 hPa 0,0 l/m 0 min 0 min 0 W/m 9,7 km/h (2 Bft) 94,74 %
08.06.2019 22:46 14,0 C 12,8 C 12,2 C 81 % 1022,6 hPa 0,0 l/m 0 min 0 min 0 W/m 9,7 km/h (2 Bft) 95,74 %
08.06.2019 22:48 13,9 C 12,8 C 12,2 C 81 % 1022,6 hPa 0,0 l/m 0 min 0 min 0 W/m 12,9 km/h (3 Bft) 93,62 %
08.06.2019 22:50 13,9 C 12,8 C 12,2 C 81 % 1022,7 hPa 0,0 l/m 0 min 0 min 0 W/m 9,7 km/h (2 Bft) 95,74 %
08.06.2019 22:52 13,8 C 12,8 C 12,2 C 81 % 1022,8 hPa 0,0 l/m 0 min 0 min 0 W/m 9,7 km/h (2 Bft) 97,87 %
08.06.2019 22:54 13,8 C 12,8 C 12,2 C 81 % 1022,8 hPa 0,0 l/m 0 min 0 min 0 W/m 9,7 km/h (2 Bft) 97,83 %
08.06.2019 22:56 13,8 C 12,2 C 12,2 C 81 % 1022,8 hPa 0,0 l/m 0 min 0 min 0 W/m 9,7 km/h (2 Bft) 96,23 %
08.06.2019 22:58 13,7 C 12,2 C 12,2 C 81 % 1022,9 hPa 0,0 l/m 0 min 0 min 0 W/m 9,7 km/h (2 Bft) 96,00 %
08.06.2019 23:00 13,7 C 12,2 C 12,2 C 81 % 1022,9 hPa 0,0 l/m 0 min 0 min 0 W/m 9,7 km/h (2 Bft) 94,74 %
08.06.2019 23:02 13,7 C 12,2 C 12,2 C 81 % 1022,9 hPa 0,0 l/m 0 min 0 min 0 W/m 12,9 km/h (3 Bft) 96,00 %
08.06.2019 23:04 13,6 C 12,2 C 12,2 C 81 % 1022,9 hPa 0,0 l/m 0 min 0 min 0 W/m 6,4 km/h (2 Bft) 98,08 %
08.06.2019 23:06 13,6 C 12,2 C 12,2 C 81 % 1022,8 hPa 0,0 l/m 0 min 0 min 0 W/m 6,4 km/h (2 Bft) 95,74 %
08.06.2019 23:08 13,6 C 12,2 C 12,2 C 81 % 1022,9 hPa 0,0 l/m 0 min 0 min 0 W/m 6,4 km/h (2 Bft) 93,62 %
08.06.2019 23:10 13,6 C 12,2 C 11,7 C 82 % 1022,9 hPa 0,0 l/m 0 min 0 min 0 W/m 9,7 km/h (2 Bft) 93,62 %
08.06.2019 23:12 13,5 C 12,2 C 11,7 C 82 % 1022,9 hPa 0,0 l/m 0 min 0 min 0 W/m 9,7 km/h (2 Bft) 94,74 %
08.06.2019 23:14 13,4 C 12,2 C 11,7 C 82 % 1022,9 hPa 0,0 l/m 0 min 0 min 0 W/m 6,4 km/h (2 Bft) 93,62 %
08.06.2019 23:16 13,4 C 12,2 C 11,7 C 82 % 1022,9 hPa 0,0 l/m 0 min 0 min 0 W/m 6,4 km/h (2 Bft) 95,74 %
08.06.2019 23:18 13,4 C 12,2 C 11,7 C 82 % 1022,9 hPa 0,0 l/m 0 min 0 min 0 W/m 12,9 km/h (3 Bft) 95,65 %
08.06.2019 23:20 13,3 C 12,2 C 11,7 C 82 % 1022,9 hPa 0,0 l/m 0 min 0 min 0 W/m 9,7 km/h (2 Bft) 95,74 %
08.06.2019 23:22 13,3 C 12,2 C 11,7 C 82 % 1022,9 hPa 0,0 l/m 0 min 0 min 0 W/m 9,7 km/h (2 Bft) 95,74 %
08.06.2019 23:24 13,3 C 12,2 C 11,7 C 82 % 1022,9 hPa 0,0 l/m 0 min 0 min 0 W/m 6,4 km/h (2 Bft) 95,74 %
08.06.2019 23:26 13,3 C 12,2 C 11,7 C 82 % 1022,9 hPa 0,0 l/m 0 min 0 min 0 W/m 12,9 km/h (3 Bft) 93,62 %
08.06.2019 23:28 13,2 C 11,7 C 11,7 C 83 % 1022,9 hPa 0,0 l/m 0 min 0 min 0 W/m 9,7 km/h (2 Bft) 95,74 %
08.06.2019 23:30 13,2 C 12,2 C 11,7 C 83 % 1022,8 hPa 0,0 l/m 0 min 0 min 0 W/m 9,7 km/h (2 Bft) 95,65 %
08.06.2019 23:32 13,2 C 12,2 C 11,7 C 83 % 1022,8 hPa 0,0 l/m 0 min 0 min 0 W/m 12,9 km/h (3 Bft) 93,62 %
08.06.2019 23:34 13,1 C 11,7 C 11,7 C 83 % 1022,9 hPa 0,0 l/m 0 min 0 min 0 W/m 12,9 km/h (3 Bft) 95,74 %
08.06.2019 23:36 13,1 C 11,7 C 11,7 C 83 % 1022,9 hPa 0,0 l/m 0 min 0 min 0 W/m 6,4 km/h (2 Bft) 98,00 %
08.06.2019 23:38 13,1 C 11,7 C 11,7 C 83 % 1022,9 hPa 0,0 l/m 0 min 0 min 0 W/m 9,7 km/h (2 Bft) 95,74 %
08.06.2019 23:40 13,1 C 11,7 C 11,7 C 83 % 1022,9 hPa 0,0 l/m 0 min 0 min 0 W/m 9,7 km/h (2 Bft) 95,65 %
08.06.2019 23:42 13,0 C 11,7 C 11,7 C 83 % 1022,9 hPa 0,0 l/m 0 min 0 min 0 W/m 12,9 km/h (3 Bft) 97,87 %
08.06.2019 23:44 13,0 C 11,7 C 11,7 C 83 % 1022,9 hPa 0,0 l/m 0 min 0 min 0 W/m 9,7 km/h (2 Bft) 97,87 %
08.06.2019 23:46 13,0 C 11,7 C 11,7 C 84 % 1022,9 hPa 0,0 l/m 0 min 0 min 0 W/m 12,9 km/h (3 Bft) 97,87 %
08.06.2019 23:48 12,9 C 11,7 C 11,7 C 84 % 1022,9 hPa 0,0 l/m 0 min 0 min 0 W/m 9,7 km/h (2 Bft) 95,74 %
08.06.2019 23:50 12,9 C 11,7 C 11,7 C 84 % 1023,0 hPa 0,0 l/m 0 min 0 min 0 W/m 9,7 km/h (2 Bft) 100,00 %
08.06.2019 23:52 12,9 C 11,7 C 11,7 C 84 % 1022,9 hPa 0,0 l/m 0 min 0 min 0 W/m 9,7 km/h (2 Bft) 100,00 %
08.06.2019 23:54 12,9 C 11,7 C 11,7 C 84 % 1023,0 hPa 0,0 l/m 0 min 0 min 0 W/m 9,7 km/h (2 Bft) 97,87 %
08.06.2019 23:56 12,9 C 11,7 C 11,7 C 84 % 1022,9 hPa 0,0 l/m 0 min 0 min 0 W/m 12,9 km/h (3 Bft) 100,00 %
08.06.2019 23:58 12,8 C 11,7 C 11,7 C 84 % 1023,1 hPa 0,0 l/m 0 min 0 min 0 W/m 9,7 km/h (2 Bft) 94,74 %
_ Min-Zeit 23:58 18:16 18:22 16:44 00:24 - - - - 18:30 09:22
Minimum _ 12,8 C 11,1 C 11,1 C 55 % 1010,0 hPa - - - - 3,2 km/h (1 Bft) 91,30 %
_ Max-Zeit 16:34 15:30 15:18 19:08 23:58 00:16 15:16 08:08 15:22 04:42 00:00
Maximum _ 19,4 C 21,7 C 19,4 C 87 % 1023,1 hPa 0,2 l/m 4 min 2 min 1124 W/m 70,8 km/h
S (8 Bft)
100,00 %
Durchschnitt _ 15,4 C 14,9 C 14,3 C 70 % 1016,8 hPa #0,8 l/m #1:44 h #1:22 h 183 W/m 27,4 km/h (4 Bft) 97,54 %
© 2019 W. Hausmann